GFSNGP_prec_precacc24_042.txt.gz
Total_Precipitation_Accumulation
0.00 0.00 0.00 0.00 0.00 0.00 0.00 0.00 0.00 0.00 0.00 0.00 0.00 0.00 0.00 0.00 0.00 0.00 0.00 0.00 0.00 0.01 0.02 0.01 0.01 0.02 0.02 0.02 0.02 0.02 0.01 0.01 0.01 0.00 0.00 0.00 0.00 0.00 0.00 0.00 0.00 0.00 0.00 0.00
0.00 0.00 0.00 0.00 0.00 0.00 0.00 0.00 0.00 0.00 0.00 0.00 0.00 0.00 0.00 0.00 0.00 0.00 0.00 0.00 0.00 0.01 0.02 0.02 0.04 0.04 0.02 0.02 0.02 0.01 0.00 0.00 0.00 0.00 0.00 0.00 0.00 0.00 0.00 0.00 0.01 0.00 0.00 0.00
0.00 0.00 0.00 0.00 0.00 0.00 0.00 0.00 0.00 0.00 0.00 0.00 0.00 0.00 0.00 0.00 0.00 0.00 0.00 0.00 0.00 0.00 0.00 0.00 0.01 0.03 0.03 0.02 0.01 0.01 0.00 0.00 0.00 0.00 0.00 0.00 0.00 0.00 0.00 0.00 0.00 0.00 0.00 0.00
0.00 0.00 0.00 0.00 0.00 0.00 0.00 0.00 0.00 0.00 0.00 0.00 0.00 0.00 0.00 0.00 0.00 0.00 0.00 0.00 0.00 0.00 0.00 0.00 0.00 0.01 0.01 0.01 0.00 0.00 0.00 0.00 0.00 0.00 0.00 0.00 0.00 0.01 0.01 0.00 0.00 0.00 0.00 0.00
0.00 0.00 0.00 0.00 0.00 0.00 0.00 0.00 0.00 0.00 0.00 0.00 0.00 0.00 0.00 0.00 0.00 0.00 0.00 0.00 0.00 0.00 0.00 0.00 0.00 0.00 0.01 0.00 0.00 0.00 0.00 0.00 0.00 0.00 0.01 0.03 0.05 0.02 0.00 0.00 0.00 0.00 0.00 0.00
0.00 0.00 0.00 0.00 0.00 0.00 0.00 0.00 0.00 0.00 0.00 0.00 0.00 0.00 0.00 0.00 0.00 0.00 0.00 0.00 0.00 0.00 0.00 0.00 0.00 0.00 0.00 0.00 0.00 0.00 0.00 0.00 0.01 0.03 0.05 0.03 0.01 0.00 0.00 0.00 0.00 0.00 0.00 0.00
0.00 0.00 0.00 0.00 0.00 0.00 0.00 0.00 0.00 0.00 0.00 0.00 0.00 0.00 0.00 0.00 0.00 0.00 0.00 0.00 0.00 0.00 0.00 0.00 0.00 0.00 0.00 0.00 0.01 0.01 0.01 0.04 0.06 0.03 0.01 0.00 0.00 0.00 0.00 0.00 0.00 0.00 0.00 0.00
0.00 0.00 0.00 0.00 0.00 0.00 0.00 0.00 0.00 0.00 0.00 0.00 0.00 0.00 0.00 0.00 0.00 0.00 0.00 0.00 0.00 0.00 0.00 0.01 0.01 0.01 0.01 0.01 0.01 0.01 0.03 0.02 0.00 0.00 0.00 0.00 0.00 0.00 0.00 0.00 0.00 0.00 0.00 0.00
0.00 0.00 0.00 0.00 0.00 0.00 0.00 0.00 0.00 0.00 0.00 0.00 0.00 0.00 0.00 0.00 0.00 0.00 0.00 0.00 0.00 0.01 0.02 0.02 0.01 0.01 0.01 0.01 0.01 0.00 0.00 0.00 0.00 0.00 0.00 0.00 0.00 0.00 0.00 0.00 0.00 0.00 0.00 0.01
0.00 0.00 0.00 0.00 0.00 0.00 0.00 0.00 0.00 0.00 0.00 0.00 0.00 0.01 0.02 0.01 0.01 0.01 0.01 0.02 0.02 0.02 0.01 0.01 0.00 0.00 0.00 0.00 0.00 0.00 0.00 0.00 0.00 0.00 0.00 0.00 0.00 0.00 0.00 0.00 0.00 0.00 0.01 0.01
0.00 0.00 0.00 0.00 0.00 0.00 0.00 0.00 0.00 0.00 0.00 0.00 0.01 0.01 0.00 0.00 0.01 0.01 0.00 0.00 0.01 0.01 0.01 0.00 0.00 0.00 0.00 0.00 0.00 0.00 0.00 0.00 0.00 0.00 0.00 0.00 0.00 0.00 0.00 0.00 0.00 0.00 0.01 0.01
0.00 0.00 0.00 0.00 0.00 0.00 0.00 0.00 0.00 0.00 0.00 0.00 0.00 0.00 0.01 0.02 0.02 0.01 0.01 0.02 0.01 0.01 0.01 0.01 0.00 0.00 0.00 0.00 0.00 0.00 0.00 0.00 0.00 0.01 0.01 0.00 0.00 0.00 0.00 0.00 0.00 0.00 0.00 0.00
0.00 0.00 0.00 0.00 0.00 0.00 0.00 0.00 0.00 0.00 0.00 0.00 0.00 0.01 0.04 0.03 0.02 0.02 0.02 0.02 0.02 0.01 0.00 0.00 0.00 0.00 0.00 0.00 0.00 0.00 0.00 0.00 0.01 0.02 0.02 0.01 0.01 0.01 0.01 0.01 0.00 0.00 0.00 0.01
0.00 0.00 0.00 0.00 0.00 0.00 0.00 0.00 0.00 0.00 0.00 0.01 0.06 0.07 0.05 0.05 0.04 0.03 0.02 0.01 0.00 0.00 0.00 0.00 0.00 0.00 0.00 0.00 0.00 0.00 0.00 0.01 0.01 0.01 0.02 0.02 0.02 0.03 0.04 0.05 0.05 0.04 0.02 0.02
0.00 0.00 0.00 0.00 0.00 0.00 0.00 0.00 0.00 0.02 0.07 0.12 0.09 0.05 0.02 0.02 0.02 0.01 0.01 0.01 0.01 0.01 0.00 0.00 0.00 0.00 0.00 0.00 0.00 0.00 0.00 0.01 0.01 0.02 0.02 0.02 0.02 0.04 0.06 0.07 0.08 0.05 0.03 0.02
0.00 0.00 0.00 0.00 0.00 0.00 0.01 0.03 0.10 0.26 0.22 0.12 0.04 0.01 0.01 0.02 0.01 0.01 0.00 0.00 0.00 0.00 0.00 0.00 0.00 0.00 0.00 0.00 0.00 0.00 0.01 0.02 0.03 0.04 0.03 0.03 0.04 0.06 0.07 0.07 0.07 0.06 0.04 0.02
0.00 0.00 0.00 0.01 0.04 0.09 0.16 0.20 0.22 0.19 0.10 0.03 0.01 0.01 0.01 0.00 0.00 0.00 0.00 0.00 0.00 0.00 0.00 0.00 0.00 0.00 0.00 0.00 0.00 0.02 0.03 0.03 0.04 0.06 0.06 0.06 0.07 0.07 0.07 0.09 0.09 0.07 0.05 0.03
0.00 0.00 0.02 0.08 0.24 0.25 0.16 0.09 0.06 0.02 0.01 0.01 0.01 0.00 0.00 0.00 0.00 0.00 0.00 0.00 0.00 0.00 0.00 0.00 0.00 0.00 0.00 0.00 0.01 0.01 0.03 0.04 0.05 0.07 0.07 0.07 0.06 0.07 0.10 0.12 0.11 0.09 0.04 0.02
0.06 0.13 0.17 0.17 0.13 0.09 0.04 0.02 0.01 0.01 0.00 0.00 0.00 0.00 0.00 0.00 0.00 0.00 0.00 0.00 0.00 0.00 0.00 0.00 0.00 0.00 0.00 0.00 0.00 0.03 0.05 0.05 0.05 0.07 0.08 0.09 0.11 0.11 0.11 0.09 0.08 0.07 0.09 0.09
0.09 0.08 0.06 0.03 0.01 0.00 0.01 0.00 0.00 0.00 0.00 0.00 0.00 0.00 0.00 0.00 0.00 0.00 0.00 0.00 0.00 0.00 0.00 0.00 0.00 0.00 0.00 0.01 0.01 0.03 0.05 0.07 0.09 0.09 0.10 0.10 0.10 0.09 0.09 0.10 0.15 0.18 0.15 0.12
0.00 0.00 0.00 0.00 0.00 0.00 0.00 0.00 0.00 0.00 0.00 0.00 0.00 0.00 0.00 0.00 0.00 0.00 0.00 0.00 0.00 0.00 0.00 0.00 0.01 0.01 0.02 0.02 0.02 0.05 0.07 0.08 0.10 0.11 0.14 0.14 0.14 0.17 0.22 0.21 0.19 0.17 0.17 0.15
0.00 0.00 0.00 0.00 0.00 0.00 0.00 0.00 0.00 0.00 0.00 0.00 0.00 0.00 0.00 0.00 0.00 0.00 0.00 0.00 0.00 0.00 0.00 0.01 0.02 0.01 0.02 0.03 0.06 0.07 0.07 0.11 0.14 0.15 0.18 0.22 0.26 0.23 0.19 0.16 0.16 0.14 0.14 0.14
0.00 0.00 0.00 0.00 0.00 0.00 0.00 0.00 0.00 0.00 0.00 0.00 0.00 0.00 0.00 0.00 0.00 0.01 0.01 0.00 0.00 0.01 0.01 0.03 0.04 0.03 0.03 0.06 0.07 0.10 0.13 0.18 0.21 0.22 0.21 0.17 0.17 0.16 0.15 0.13 0.11 0.13 0.13 0.13
0.00 0.00 0.00 0.00 0.00 0.00 0.00 0.00 0.00 0.00 0.00 0.00 0.00 0.00 0.00 0.00 0.00 0.00 0.01 0.01 0.01 0.02 0.04 0.06 0.06 0.04 0.06 0.10 0.12 0.13 0.15 0.15 0.11 0.10 0.11 0.11 0.11 0.12 0.13 0.11 0.10 0.10 0.11 0.11
0.00 0.00 0.00 0.00 0.00 0.00 0.00 0.00 0.00 0.00 0.00 0.00 0.00 0.00 0.00 0.00 0.01 0.01 0.01 0.03 0.04 0.05 0.07 0.07 0.07 0.06 0.09 0.09 0.10 0.10 0.11 0.10 0.07 0.09 0.11 0.11 0.10 0.11 0.12 0.12 0.12 0.11 0.11 0.10
0.00 0.00 0.00 0.00 0.00 0.00 0.00 0.00 0.00 0.00 0.00 0.00 0.00 0.00 0.00 0.01 0.01 0.02 0.04 0.04 0.05 0.05 0.08 0.09 0.08 0.07 0.09 0.08 0.09 0.08 0.09 0.08 0.07 0.08 0.10 0.10 0.10 0.11 0.11 0.11 0.11 0.11 0.11 0.12
0.00 0.00 0.00 0.00 0.00 0.00 0.00 0.00 0.00 0.00 0.00 0.01 0.01 0.00 0.02 0.01 0.03 0.04 0.04 0.06 0.07 0.07 0.09 0.10 0.09 0.08 0.08 0.08 0.08 0.08 0.08 0.07 0.07 0.07 0.07 0.08 0.09 0.09 0.11 0.13 0.14 0.13 0.12 0.12

GFSNGP_prec_precacc24_045.txt.gz
Total_Precipitation_Accumulation
0.00 0.00 0.00 0.00 0.00 0.00 0.00 0.00 0.00 0.00 0.00 0.00 0.00 0.00 0.00 0.00 0.00 0.00 0.00 0.00 0.01 0.01 0.02 0.02 0.03 0.05 0.06 0.07 0.05 0.04 0.05 0.04 0.02 0.01 0.00 0.00 0.00 0.00 0.00 0.00 0.00 0.00 0.00 0.00
0.00 0.00 0.00 0.00 0.00 0.00 0.00 0.00 0.00 0.00 0.00 0.00 0.00 0.00 0.00 0.00 0.00 0.00 0.00 0.00 0.00 0.01 0.03 0.03 0.05 0.05 0.05 0.03 0.04 0.05 0.03 0.02 0.01 0.01 0.00 0.00 0.00 0.00 0.00 0.00 0.00 0.02 0.01 0.00
0.00 0.00 0.00 0.00 0.00 0.00 0.00 0.00 0.00 0.00 0.00 0.00 0.00 0.00 0.00 0.00 0.00 0.00 0.00 0.00 0.00 0.00 0.00 0.00 0.01 0.03 0.03 0.02 0.02 0.02 0.01 0.01 0.00 0.00 0.00 0.00 0.00 0.00 0.02 0.06 0.05 0.01 0.00 0.00
0.00 0.00 0.00 0.00 0.00 0.00 0.00 0.00 0.00 0.00 0.00 0.00 0.00 0.00 0.00 0.00 0.00 0.00 0.00 0.00 0.00 0.00 0.00 0.00 0.00 0.01 0.01 0.01 0.01 0.01 0.00 0.00 0.00 0.00 0.00 0.00 0.03 0.09 0.10 0.03 0.00 0.00 0.00 0.00
0.00 0.00 0.00 0.00 0.00 0.00 0.00 0.00 0.00 0.00 0.00 0.00 0.00 0.00 0.00 0.00 0.00 0.00 0.00 0.00 0.00 0.00 0.00 0.00 0.00 0.00 0.01 0.00 0.00 0.00 0.00 0.00 0.00 0.00 0.02 0.09 0.15 0.08 0.01 0.00 0.00 0.00 0.00 0.00
0.00 0.00 0.00 0.00 0.00 0.00 0.00 0.00 0.00 0.00 0.00 0.00 0.00 0.00 0.00 0.00 0.00 0.00 0.00 0.00 0.00 0.00 0.00 0.00 0.00 0.00 0.00 0.00 0.00 0.00 0.00 0.00 0.01 0.09 0.16 0.11 0.03 0.00 0.00 0.00 0.00 0.00 0.00 0.00
0.00 0.00 0.00 0.00 0.00 0.00 0.00 0.00 0.00 0.00 0.00 0.00 0.00 0.00 0.00 0.00 0.00 0.00 0.00 0.00 0.00 0.00 0.00 0.00 0.00 0.00 0.00 0.00 0.01 0.02 0.05 0.11 0.16 0.10 0.02 0.00 0.00 0.00 0.00 0.00 0.00 0.00 0.00 0.00
0.00 0.00 0.00 0.00 0.00 0.00 0.00 0.00 0.00 0.00 0.00 0.00 0.00 0.00 0.00 0.00 0.00 0.00 0.00 0.00 0.00 0.00 0.00 0.01 0.01 0.01 0.01 0.01 0.02 0.03 0.04 0.02 0.00 0.00 0.00 0.00 0.00 0.00 0.00 0.00 0.00 0.00 0.00 0.00
0.00 0.00 0.00 0.00 0.00 0.00 0.00 0.00 0.00 0.00 0.00 0.00 0.00 0.00 0.00 0.00 0.00 0.00 0.00 0.00 0.00 0.01 0.02 0.02 0.01 0.01 0.01 0.01 0.01 0.00 0.00 0.00 0.00 0.00 0.00 0.00 0.00 0.00 0.00 0.00 0.00 0.00 0.00 0.01
0.00 0.00 0.00 0.00 0.00 0.00 0.00 0.00 0.00 0.00 0.00 0.00 0.00 0.00 0.02 0.01 0.01 0.01 0.01 0.02 0.02 0.02 0.01 0.01 0.00 0.00 0.00 0.00 0.00 0.00 0.00 0.00 0.00 0.00 0.00 0.00 0.00 0.00 0.00 0.00 0.00 0.00 0.01 0.01
0.00 0.00 0.00 0.00 0.00 0.00 0.00 0.00 0.00 0.00 0.00 0.00 0.00 0.00 0.00 0.00 0.01 0.01 0.00 0.00 0.01 0.01 0.01 0.00 0.00 0.00 0.00 0.00 0.00 0.00 0.00 0.00 0.00 0.00 0.00 0.00 0.00 0.00 0.00 0.00 0.00 0.00 0.01 0.01
0.00 0.00 0.00 0.00 0.00 0.00 0.00 0.00 0.00 0.00 0.00 0.00 0.00 0.00 0.01 0.02 0.02 0.01 0.01 0.02 0.01 0.01 0.01 0.01 0.00 0.00 0.00 0.00 0.00 0.00 0.00 0.00 0.00 0.01 0.01 0.00 0.00 0.00 0.00 0.00 0.00 0.00 0.00 0.00
0.00 0.00 0.00 0.00 0.00 0.00 0.00 0.00 0.00 0.00 0.00 0.00 0.00 0.01 0.04 0.03 0.02 0.02 0.02 0.02 0.02 0.01 0.00 0.00 0.00 0.00 0.00 0.00 0.00 0.00 0.00 0.00 0.00 0.01 0.02 0.01 0.01 0.01 0.01 0.01 0.00 0.00 0.00 0.01
0.00 0.00 0.00 0.00 0.00 0.00 0.00 0.00 0.00 0.00 0.00 0.01 0.06 0.07 0.05 0.05 0.04 0.03 0.02 0.01 0.00 0.00 0.00 0.00 0.00 0.00 0.00 0.00 0.00 0.00 0.00 0.00 0.01 0.01 0.02 0.02 0.02 0.03 0.04 0.05 0.05 0.04 0.02 0.03
0.00 0.00 0.00 0.00 0.00 0.00 0.00 0.00 0.00 0.01 0.07 0.12 0.09 0.05 0.02 0.02 0.02 0.01 0.01 0.01 0.01 0.01 0.00 0.00 0.00 0.00 0.00 0.00 0.00 0.00 0.00 0.01 0.01 0.02 0.02 0.02 0.02 0.04 0.06 0.08 0.08 0.06 0.03 0.02
0.00 0.00 0.00 0.00 0.00 0.00 0.00 0.01 0.08 0.26 0.22 0.12 0.04 0.01 0.01 0.02 0.01 0.01 0.00 0.00 0.00 0.00 0.00 0.00 0.00 0.00 0.00 0.00 0.00 0.00 0.00 0.02 0.03 0.04 0.03 0.03 0.05 0.07 0.07 0.08 0.08 0.07 0.05 0.02
0.00 0.00 0.00 0.00 0.00 0.02 0.08 0.16 0.21 0.18 0.10 0.03 0.01 0.01 0.01 0.00 0.00 0.00 0.00 0.00 0.00 0.00 0.00 0.00 0.00 0.00 0.00 0.00 0.00 0.01 0.02 0.02 0.03 0.06 0.06 0.07 0.07 0.07 0.08 0.10 0.09 0.08 0.07 0.06
0.00 0.00 0.01 0.02 0.10 0.17 0.15 0.09 0.05 0.02 0.01 0.01 0.01 0.00 0.00 0.00 0.00 0.00 0.00 0.00 0.00 0.00 0.00 0.00 0.00 0.00 0.00 0.00 0.00 0.00 0.02 0.03 0.04 0.07 0.08 0.07 0.07 0.07 0.11 0.13 0.12 0.11 0.06 0.04
0.02 0.03 0.06 0.10 0.11 0.08 0.04 0.02 0.01 0.01 0.00 0.00 0.00 0.00 0.00 0.00 0.00 0.00 0.00 0.00 0.00 0.00 0.00 0.00 0.00 0.00 0.00 0.00 0.00 0.02 0.03 0.03 0.05 0.07 0.08 0.09 0.11 0.11 0.12 0.09 0.09 0.09 0.11 0.15
0.02 0.03 0.03 0.02 0.00 0.00 0.00 0.00 0.00 0.00 0.00 0.00 0.00 0.00 0.00 0.00 0.00 0.00 0.00 0.00 0.00 0.00 0.00 0.00 0.00 0.00 0.00 0.01 0.01 0.02 0.03 0.06 0.08 0.09 0.10 0.10 0.10 0.09 0.09 0.10 0.15 0.19 0.17 0.15
0.01 0.00 0.00 0.00 0.00 0.00 0.00 0.00 0.00 0.00 0.00 0.00 0.00 0.00 0.00 0.00 0.00 0.00 0.00 0.00 0.00 0.00 0.00 0.00 0.01 0.01 0.02 0.02 0.02 0.04 0.06 0.07 0.09 0.11 0.14 0.14 0.14 0.17 0.22 0.21 0.18 0.18 0.17 0.16
0.00 0.00 0.01 0.01 0.00 0.00 0.00 0.00 0.00 0.00 0.00 0.00 0.00 0.00 0.00 0.00 0.00 0.00 0.00 0.00 0.00 0.00 0.00 0.01 0.02 0.01 0.02 0.03 0.05 0.06 0.06 0.10 0.13 0.15 0.18 0.22 0.26 0.23 0.19 0.16 0.16 0.14 0.14 0.14
0.02 0.02 0.02 0.01 0.00 0.00 0.00 0.00 0.00 0.00 0.00 0.00 0.00 0.00 0.00 0.00 0.00 0.01 0.01 0.00 0.00 0.01 0.01 0.03 0.04 0.03 0.03 0.05 0.07 0.09 0.12 0.17 0.20 0.22 0.21 0.17 0.16 0.16 0.15 0.13 0.11 0.13 0.14 0.13
0.01 0.01 0.00 0.00 0.00 0.00 0.00 0.00 0.00 0.00 0.00 0.00 0.00 0.00 0.00 0.00 0.00 0.00 0.01 0.01 0.01 0.02 0.04 0.06 0.06 0.04 0.06 0.10 0.12 0.13 0.14 0.14 0.10 0.09 0.10 0.09 0.09 0.10 0.11 0.10 0.10 0.10 0.11 0.11
0.01 0.00 0.00 0.00 0.00 0.00 0.00 0.00 0.00 0.00 0.00 0.00 0.00 0.00 0.00 0.00 0.01 0.01 0.01 0.03 0.04 0.05 0.07 0.07 0.07 0.05 0.09 0.09 0.09 0.09 0.10 0.09 0.06 0.07 0.08 0.08 0.08 0.08 0.08 0.08 0.09 0.09 0.11 0.10
0.01 0.00 0.00 0.00 0.00 0.00 0.00 0.00 0.00 0.00 0.00 0.00 0.00 0.00 0.01 0.01 0.01 0.01 0.03 0.04 0.05 0.05 0.08 0.09 0.08 0.07 0.08 0.08 0.08 0.07 0.08 0.07 0.06 0.07 0.08 0.07 0.07 0.06 0.06 0.06 0.07 0.09 0.10 0.12
0.02 0.01 0.00 0.00 0.00 0.00 0.00 0.00 0.00 0.00 0.00 0.01 0.01 0.01 0.02 0.01 0.01 0.02 0.03 0.05 0.07 0.07 0.09 0.10 0.09 0.08 0.08 0.08 0.08 0.08 0.08 0.07 0.06 0.06 0.06 0.05 0.05 0.05 0.05 0.06 0.08 0.09 0.11 0.12

GFSNGP_prec_precacc24_051.txt.gz
Total_Precipitation_Accumulation
0.00 0.00 0.00 0.00 0.00 0.00 0.00 0.00 0.00 0.00 0.00 0.00 0.00 0.00 0.00 0.00 0.00 0.00 0.00 0.00 0.01 0.01 0.03 0.04 0.07 0.09 0.10 0.11 0.10 0.11 0.11 0.09 0.08 0.05 0.02 0.01 0.00 0.00 0.00 0.01 0.01 0.00 0.02 0.05
0.00 0.00 0.00 0.00 0.00 0.00 0.00 0.00 0.00 0.00 0.00 0.00 0.00 0.00 0.00 0.00 0.00 0.00 0.00 0.00 0.00 0.01 0.03 0.04 0.05 0.06 0.06 0.04 0.05 0.05 0.05 0.04 0.03 0.01 0.00 0.00 0.00 0.00 0.00 0.00 0.02 0.07 0.09 0.05
0.00 0.00 0.00 0.00 0.00 0.00 0.00 0.00 0.00 0.00 0.00 0.00 0.00 0.00 0.00 0.00 0.00 0.00 0.00 0.00 0.00 0.00 0.00 0.00 0.01 0.03 0.03 0.02 0.02 0.03 0.02 0.01 0.00 0.00 0.00 0.00 0.00 0.00 0.03 0.10 0.15 0.13 0.12 0.08
0.00 0.00 0.00 0.00 0.00 0.00 0.00 0.00 0.00 0.00 0.00 0.00 0.00 0.00 0.00 0.00 0.00 0.00 0.00 0.00 0.00 0.00 0.00 0.00 0.00 0.01 0.01 0.01 0.01 0.01 0.00 0.00 0.00 0.00 0.00 0.00 0.04 0.11 0.17 0.17 0.16 0.10 0.03 0.00
0.00 0.00 0.00 0.00 0.00 0.00 0.00 0.00 0.00 0.00 0.00 0.00 0.00 0.00 0.00 0.00 0.00 0.00 0.00 0.00 0.00 0.00 0.00 0.00 0.00 0.00 0.01 0.00 0.00 0.00 0.00 0.00 0.00 0.00 0.02 0.10 0.20 0.21 0.15 0.07 0.01 0.00 0.00 0.00
0.00 0.00 0.00 0.00 0.00 0.00 0.00 0.00 0.00 0.00 0.00 0.00 0.00 0.00 0.00 0.00 0.00 0.00 0.00 0.00 0.00 0.00 0.00 0.00 0.00 0.00 0.00 0.00 0.00 0.00 0.00 0.00 0.01 0.11 0.23 0.21 0.11 0.02 0.00 0.00 0.00 0.00 0.00 0.00
0.00 0.00 0.00 0.00 0.00 0.00 0.00 0.00 0.00 0.00 0.00 0.00 0.00 0.00 0.00 0.00 0.00 0.00 0.00 0.00 0.00 0.00 0.00 0.00 0.00 0.00 0.00 0.00 0.01 0.02 0.06 0.12 0.17 0.13 0.03 0.00 0.00 0.00 0.00 0.00 0.00 0.00 0.00 0.00
0.00 0.00 0.00 0.00 0.00 0.00 0.00 0.00 0.00 0.00 0.00 0.00 0.00 0.00 0.00 0.00 0.00 0.00 0.00 0.00 0.00 0.00 0.00 0.01 0.01 0.01 0.01 0.01 0.02 0.03 0.04 0.02 0.00 0.00 0.00 0.00 0.00 0.00 0.00 0.00 0.00 0.00 0.00 0.00
0.00 0.00 0.00 0.00 0.00 0.00 0.00 0.00 0.00 0.00 0.00 0.00 0.00 0.00 0.00 0.00 0.00 0.00 0.00 0.00 0.00 0.01 0.02 0.02 0.01 0.01 0.01 0.01 0.01 0.00 0.00 0.00 0.00 0.00 0.00 0.00 0.00 0.00 0.00 0.00 0.00 0.00 0.00 0.01
0.00 0.00 0.00 0.00 0.00 0.00 0.00 0.00 0.00 0.00 0.00 0.00 0.00 0.00 0.00 0.00 0.00 0.00 0.00 0.01 0.02 0.02 0.01 0.01 0.00 0.00 0.00 0.00 0.00 0.00 0.00 0.00 0.00 0.00 0.00 0.00 0.00 0.00 0.00 0.00 0.00 0.00 0.01 0.01
0.00 0.00 0.00 0.00 0.00 0.00 0.00 0.00 0.00 0.00 0.00 0.00 0.00 0.00 0.00 0.00 0.00 0.00 0.00 0.00 0.01 0.01 0.01 0.00 0.00 0.00 0.00 0.00 0.00 0.00 0.00 0.00 0.00 0.00 0.00 0.00 0.00 0.00 0.00 0.00 0.00 0.00 0.01 0.01
0.00 0.00 0.00 0.00 0.00 0.00 0.00 0.00 0.00 0.00 0.00 0.00 0.00 0.00 0.00 0.00 0.00 0.00 0.01 0.02 0.01 0.01 0.01 0.01 0.00 0.00 0.00 0.00 0.00 0.00 0.00 0.00 0.00 0.00 0.00 0.00 0.00 0.00 0.00 0.00 0.00 0.00 0.00 0.00
0.00 0.01 0.00 0.00 0.00 0.00 0.00 0.00 0.00 0.00 0.00 0.00 0.00 0.00 0.00 0.00 0.01 0.02 0.02 0.02 0.02 0.01 0.00 0.00 0.00 0.00 0.00 0.00 0.00 0.00 0.00 0.00 0.00 0.00 0.00 0.00 0.00 0.01 0.01 0.01 0.00 0.00 0.00 0.01
0.00 0.00 0.00 0.00 0.00 0.00 0.00 0.00 0.00 0.00 0.00 0.00 0.00 0.02 0.03 0.04 0.04 0.02 0.02 0.00 0.00 0.00 0.00 0.00 0.00 0.00 0.00 0.00 0.00 0.00 0.00 0.00 0.00 0.00 0.01 0.01 0.01 0.02 0.03 0.04 0.05 0.04 0.02 0.03
0.00 0.00 0.00 0.00 0.00 0.00 0.00 0.00 0.00 0.00 0.02 0.03 0.04 0.03 0.01 0.01 0.01 0.01 0.00 0.01 0.01 0.01 0.00 0.00 0.00 0.00 0.00 0.00 0.00 0.00 0.00 0.00 0.00 0.01 0.01 0.02 0.02 0.04 0.06 0.08 0.08 0.06 0.03 0.02
0.00 0.00 0.00 0.00 0.00 0.00 0.00 0.00 0.02 0.07 0.05 0.03 0.02 0.00 0.01 0.00 0.00 0.00 0.00 0.00 0.00 0.00 0.00 0.00 0.00 0.00 0.00 0.00 0.00 0.00 0.00 0.00 0.01 0.02 0.02 0.02 0.04 0.06 0.07 0.08 0.08 0.07 0.05 0.03
0.00 0.00 0.00 0.00 0.00 0.01 0.01 0.01 0.01 0.02 0.01 0.00 0.00 0.00 0.00 0.00 0.00 0.00 0.00 0.00 0.00 0.00 0.00 0.00 0.00 0.00 0.00 0.00 0.00 0.00 0.01 0.01 0.02 0.03 0.04 0.06 0.06 0.07 0.08 0.10 0.09 0.08 0.07 0.06
0.00 0.00 0.00 0.00 0.01 0.01 0.00 0.00 0.00 0.00 0.00 0.00 0.00 0.00 0.00 0.00 0.00 0.00 0.00 0.00 0.00 0.00 0.00 0.00 0.00 0.00 0.00 0.00 0.00 0.00 0.01 0.02 0.02 0.05 0.06 0.05 0.06 0.07 0.11 0.13 0.12 0.10 0.06 0.04
0.01 0.00 0.00 0.00 0.00 0.00 0.00 0.00 0.00 0.01 0.03 0.03 0.02 0.01 0.00 0.00 0.00 0.00 0.00 0.00 0.00 0.00 0.00 0.00 0.00 0.00 0.00 0.00 0.00 0.01 0.02 0.03 0.03 0.05 0.05 0.07 0.09 0.11 0.11 0.09 0.09 0.09 0.11 0.15
0.03 0.01 0.01 0.01 0.00 0.00 0.01 0.03 0.04 0.06 0.05 0.03 0.01 0.00 0.00 0.00 0.00 0.00 0.00 0.00 0.00 0.00 0.00 0.00 0.00 0.00 0.00 0.01 0.01 0.02 0.03 0.05 0.06 0.07 0.07 0.08 0.09 0.09 0.09 0.10 0.15 0.19 0.17 0.15
0.03 0.02 0.01 0.01 0.03 0.06 0.07 0.08 0.08 0.07 0.04 0.01 0.00 0.00 0.00 0.00 0.00 0.00 0.00 0.00 0.00 0.00 0.00 0.00 0.01 0.01 0.01 0.02 0.02 0.03 0.05 0.06 0.07 0.08 0.11 0.12 0.12 0.16 0.21 0.21 0.18 0.17 0.17 0.16
0.06 0.06 0.06 0.07 0.06 0.08 0.07 0.07 0.04 0.01 0.00 0.00 0.00 0.00 0.00 0.00 0.00 0.00 0.00 0.00 0.00 0.00 0.00 0.01 0.02 0.01 0.02 0.03 0.04 0.06 0.05 0.08 0.10 0.11 0.15 0.20 0.24 0.21 0.17 0.14 0.13 0.12 0.12 0.12
0.08 0.07 0.08 0.08 0.05 0.05 0.05 0.02 0.01 0.00 0.00 0.00 0.00 0.00 0.00 0.00 0.00 0.00 0.01 0.00 0.00 0.01 0.01 0.03 0.03 0.02 0.02 0.05 0.07 0.09 0.11 0.15 0.16 0.18 0.18 0.14 0.13 0.12 0.11 0.10 0.08 0.09 0.09 0.09
0.10 0.10 0.09 0.07 0.04 0.02 0.01 0.01 0.01 0.00 0.00 0.00 0.00 0.00 0.00 0.00 0.00 0.00 0.01 0.01 0.01 0.01 0.02 0.03 0.03 0.02 0.04 0.10 0.11 0.12 0.13 0.13 0.08 0.07 0.07 0.07 0.07 0.07 0.07 0.07 0.06 0.06 0.07 0.07
0.10 0.11 0.10 0.09 0.06 0.04 0.02 0.01 0.00 0.00 0.00 0.00 0.00 0.00 0.00 0.00 0.01 0.01 0.01 0.02 0.02 0.02 0.03 0.04 0.04 0.04 0.08 0.09 0.09 0.08 0.09 0.08 0.05 0.06 0.06 0.06 0.06 0.05 0.05 0.05 0.05 0.06 0.05 0.05
0.10 0.09 0.09 0.07 0.05 0.04 0.02 0.01 0.01 0.00 0.00 0.00 0.00 0.00 0.01 0.01 0.00 0.01 0.01 0.02 0.02 0.02 0.05 0.06 0.06 0.05 0.07 0.08 0.08 0.07 0.08 0.07 0.05 0.06 0.06 0.05 0.05 0.04 0.04 0.03 0.03 0.03 0.04 0.05
0.12 0.10 0.08 0.06 0.06 0.05 0.04 0.03 0.03 0.03 0.03 0.03 0.02 0.02 0.03 0.02 0.01 0.01 0.01 0.01 0.02 0.02 0.03 0.05 0.05 0.05 0.06 0.07 0.08 0.07 0.07 0.07 0.06 0.06 0.04 0.04 0.04 0.03 0.03 0.03 0.03 0.03 0.03 0.04

GFSNGP_prec_precacc24_057.txt.gz
Total_Precipitation_Accumulation
0.00 0.00 0.00 0.00 0.00 0.00 0.00 0.00 0.00 0.00 0.00 0.00 0.00 0.00 0.00 0.00 0.00 0.00 0.00 0.00 0.01 0.01 0.03 0.04 0.07 0.10 0.11 0.12 0.11 0.11 0.14 0.12 0.10 0.06 0.03 0.01 0.00 0.00 0.01 0.01 0.01 0.00 0.02 0.07
0.00 0.00 0.00 0.00 0.00 0.00 0.00 0.00 0.00 0.00 0.00 0.00 0.00 0.00 0.00 0.00 0.00 0.00 0.00 0.00 0.00 0.01 0.03 0.04 0.06 0.08 0.08 0.06 0.06 0.07 0.11 0.06 0.04 0.01 0.00 0.00 0.00 0.00 0.00 0.00 0.02 0.07 0.10 0.08
0.00 0.00 0.00 0.00 0.00 0.00 0.00 0.00 0.00 0.00 0.00 0.00 0.00 0.00 0.00 0.00 0.00 0.00 0.00 0.00 0.00 0.00 0.00 0.00 0.01 0.04 0.04 0.04 0.04 0.04 0.02 0.01 0.00 0.00 0.00 0.00 0.00 0.00 0.03 0.11 0.16 0.15 0.14 0.10
0.00 0.00 0.00 0.00 0.00 0.00 0.00 0.00 0.00 0.00 0.00 0.00 0.00 0.00 0.00 0.00 0.00 0.00 0.00 0.00 0.00 0.00 0.00 0.00 0.00 0.01 0.02 0.01 0.01 0.01 0.00 0.00 0.00 0.00 0.00 0.00 0.04 0.12 0.19 0.19 0.17 0.11 0.03 0.00
0.00 0.00 0.00 0.00 0.00 0.00 0.00 0.00 0.00 0.00 0.00 0.00 0.00 0.00 0.00 0.00 0.00 0.00 0.00 0.00 0.00 0.00 0.00 0.00 0.00 0.00 0.01 0.00 0.00 0.00 0.00 0.00 0.00 0.00 0.02 0.10 0.20 0.21 0.15 0.07 0.01 0.00 0.00 0.00
0.00 0.00 0.00 0.00 0.00 0.00 0.00 0.00 0.00 0.00 0.00 0.00 0.00 0.00 0.00 0.00 0.00 0.00 0.00 0.00 0.00 0.00 0.00 0.00 0.00 0.00 0.00 0.00 0.00 0.00 0.00 0.00 0.01 0.11 0.23 0.21 0.11 0.02 0.00 0.00 0.00 0.00 0.00 0.00
0.02 0.00 0.00 0.00 0.00 0.00 0.00 0.00 0.00 0.00 0.00 0.00 0.00 0.00 0.00 0.00 0.00 0.00 0.00 0.00 0.00 0.00 0.00 0.00 0.00 0.00 0.00 0.00 0.01 0.02 0.06 0.12 0.17 0.13 0.03 0.00 0.00 0.00 0.00 0.00 0.00 0.00 0.00 0.00
0.02 0.02 0.00 0.00 0.00 0.00 0.00 0.00 0.00 0.00 0.00 0.00 0.00 0.00 0.00 0.00 0.00 0.00 0.00 0.00 0.00 0.00 0.00 0.00 0.00 0.00 0.01 0.01 0.02 0.03 0.04 0.02 0.00 0.00 0.00 0.00 0.00 0.00 0.00 0.00 0.00 0.00 0.00 0.00
0.01 0.00 0.00 0.00 0.00 0.00 0.00 0.00 0.00 0.00 0.00 0.00 0.00 0.00 0.00 0.00 0.00 0.00 0.00 0.00 0.00 0.00 0.00 0.00 0.00 0.01 0.01 0.01 0.00 0.00 0.00 0.00 0.00 0.00 0.00 0.00 0.00 0.00 0.00 0.00 0.00 0.00 0.00 0.00
0.00 0.00 0.00 0.00 0.00 0.00 0.00 0.00 0.00 0.00 0.00 0.00 0.00 0.00 0.00 0.00 0.00 0.00 0.00 0.00 0.00 0.00 0.00 0.00 0.00 0.00 0.00 0.00 0.00 0.00 0.00 0.00 0.00 0.00 0.00 0.00 0.00 0.00 0.00 0.00 0.00 0.00 0.00 0.00
0.00 0.00 0.00 0.00 0.00 0.00 0.00 0.00 0.00 0.00 0.00 0.00 0.00 0.00 0.00 0.00 0.00 0.00 0.00 0.00 0.00 0.00 0.00 0.00 0.00 0.00 0.00 0.00 0.00 0.00 0.00 0.00 0.00 0.00 0.00 0.00 0.00 0.00 0.00 0.00 0.00 0.00 0.00 0.01
0.00 0.01 0.01 0.00 0.00 0.00 0.00 0.00 0.00 0.00 0.00 0.00 0.00 0.00 0.00 0.00 0.00 0.00 0.00 0.00 0.00 0.00 0.00 0.00 0.00 0.00 0.00 0.00 0.00 0.00 0.00 0.00 0.00 0.00 0.00 0.00 0.00 0.00 0.00 0.00 0.00 0.00 0.00 0.00
0.00 0.01 0.00 0.00 0.00 0.00 0.00 0.00 0.00 0.00 0.00 0.00 0.00 0.00 0.00 0.00 0.00 0.00 0.00 0.00 0.00 0.00 0.00 0.00 0.00 0.00 0.00 0.00 0.00 0.00 0.00 0.00 0.00 0.00 0.00 0.00 0.00 0.00 0.00 0.00 0.00 0.00 0.00 0.01
0.00 0.00 0.00 0.00 0.00 0.00 0.00 0.00 0.00 0.00 0.00 0.00 0.00 0.00 0.00 0.00 0.00 0.00 0.00 0.00 0.00 0.00 0.00 0.00 0.00 0.00 0.00 0.00 0.00 0.00 0.00 0.00 0.00 0.00 0.00 0.00 0.00 0.00 0.01 0.02 0.03 0.03 0.02 0.03
0.00 0.00 0.00 0.00 0.00 0.00 0.00 0.00 0.00 0.00 0.00 0.00 0.00 0.00 0.00 0.00 0.00 0.00 0.00 0.00 0.00 0.00 0.00 0.00 0.00 0.00 0.00 0.00 0.00 0.00 0.00 0.00 0.00 0.00 0.00 0.00 0.01 0.02 0.04 0.05 0.06 0.04 0.02 0.01
0.00 0.00 0.00 0.00 0.00 0.00 0.00 0.00 0.00 0.00 0.00 0.00 0.00 0.00 0.00 0.00 0.00 0.00 0.00 0.00 0.00 0.00 0.00 0.00 0.00 0.00 0.00 0.00 0.00 0.00 0.00 0.00 0.01 0.02 0.02 0.02 0.03 0.04 0.05 0.05 0.05 0.05 0.04 0.02
0.00 0.00 0.00 0.00 0.00 0.00 0.00 0.00 0.00 0.00 0.00 0.00 0.00 0.00 0.00 0.00 0.00 0.00 0.00 0.00 0.00 0.00 0.00 0.01 0.01 0.01 0.01 0.00 0.00 0.00 0.01 0.01 0.01 0.02 0.03 0.04 0.04 0.05 0.05 0.07 0.07 0.06 0.05 0.05
0.00 0.00 0.00 0.00 0.00 0.00 0.00 0.00 0.00 0.00 0.00 0.00 0.00 0.01 0.02 0.04 0.06 0.09 0.10 0.08 0.06 0.05 0.05 0.05 0.04 0.04 0.02 0.00 0.00 0.00 0.01 0.01 0.01 0.02 0.03 0.03 0.03 0.04 0.07 0.10 0.09 0.08 0.05 0.03
0.01 0.00 0.00 0.00 0.00 0.00 0.00 0.00 0.00 0.01 0.03 0.05 0.09 0.14 0.18 0.23 0.23 0.22 0.19 0.14 0.11 0.07 0.05 0.03 0.02 0.01 0.00 0.00 0.00 0.01 0.01 0.01 0.01 0.02 0.03 0.05 0.07 0.08 0.08 0.05 0.06 0.06 0.09 0.12
0.06 0.04 0.03 0.03 0.02 0.02 0.03 0.06 0.10 0.15 0.19 0.22 0.29 0.34 0.36 0.32 0.26 0.20 0.15 0.12 0.08 0.05 0.02 0.01 0.01 0.00 0.00 0.00 0.00 0.01 0.02 0.04 0.04 0.05 0.05 0.04 0.04 0.04 0.04 0.07 0.13 0.16 0.14 0.13
0.25 0.23 0.22 0.23 0.26 0.30 0.33 0.38 0.42 0.49 0.55 0.50 0.41 0.35 0.28 0.24 0.19 0.15 0.10 0.07 0.04 0.01 0.00 0.00 0.00 0.00 0.01 0.01 0.00 0.01 0.02 0.03 0.03 0.05 0.07 0.07 0.07 0.11 0.17 0.17 0.15 0.14 0.14 0.13
0.29 0.32 0.38 0.41 0.41 0.47 0.49 0.48 0.40 0.33 0.28 0.24 0.19 0.16 0.13 0.12 0.08 0.05 0.03 0.02 0.01 0.00 0.00 0.00 0.01 0.01 0.00 0.00 0.01 0.02 0.02 0.04 0.06 0.07 0.11 0.15 0.17 0.14 0.11 0.09 0.08 0.08 0.08 0.09
0.24 0.22 0.23 0.26 0.21 0.22 0.26 0.24 0.22 0.17 0.15 0.12 0.11 0.11 0.09 0.07 0.05 0.02 0.02 0.01 0.00 0.00 0.00 0.01 0.01 0.00 0.00 0.00 0.02 0.03 0.05 0.07 0.09 0.13 0.14 0.10 0.09 0.08 0.07 0.06 0.05 0.05 0.05 0.05
0.19 0.19 0.21 0.21 0.15 0.10 0.10 0.12 0.09 0.08 0.06 0.06 0.04 0.03 0.02 0.02 0.02 0.01 0.00 0.00 0.00 0.00 0.00 0.01 0.00 0.00 0.00 0.01 0.01 0.02 0.03 0.05 0.04 0.05 0.06 0.06 0.05 0.05 0.05 0.04 0.04 0.04 0.03 0.04
0.18 0.20 0.21 0.19 0.13 0.13 0.09 0.07 0.04 0.03 0.02 0.02 0.02 0.02 0.01 0.01 0.01 0.00 0.00 0.01 0.00 0.01 0.01 0.01 0.01 0.00 0.01 0.01 0.02 0.02 0.02 0.03 0.02 0.04 0.04 0.05 0.05 0.05 0.04 0.04 0.04 0.04 0.03 0.02
0.17 0.16 0.16 0.15 0.13 0.11 0.08 0.05 0.05 0.04 0.03 0.03 0.03 0.03 0.03 0.02 0.02 0.02 0.02 0.02 0.01 0.01 0.02 0.02 0.02 0.01 0.01 0.01 0.01 0.02 0.02 0.02 0.02 0.03 0.04 0.04 0.04 0.04 0.03 0.03 0.02 0.03 0.02 0.03
0.17 0.16 0.12 0.10 0.11 0.10 0.08 0.07 0.06 0.07 0.06 0.06 0.05 0.05 0.05 0.04 0.03 0.03 0.02 0.03 0.02 0.02 0.02 0.02 0.01 0.01 0.01 0.01 0.02 0.02 0.02 0.02 0.03 0.03 0.03 0.03 0.03 0.03 0.02 0.02 0.02 0.02 0.01 0.01

GFSNGP_prec_precacc24_060.txt.gz
Total_Precipitation_Accumulation
0.00 0.00 0.00 0.00 0.00 0.00 0.00 0.00 0.00 0.00 0.00 0.00 0.00 0.00 0.00 0.00 0.00 0.00 0.00 0.00 0.01 0.01 0.03 0.04 0.07 0.10 0.11 0.14 0.12 0.14 0.18 0.15 0.13 0.07 0.06 0.02 0.01 0.01 0.01 0.01 0.01 0.00 0.02 0.07
0.00 0.00 0.00 0.00 0.00 0.00 0.00 0.00 0.00 0.00 0.00 0.00 0.00 0.00 0.00 0.00 0.00 0.00 0.00 0.00 0.00 0.01 0.03 0.04 0.06 0.08 0.10 0.08 0.08 0.08 0.14 0.10 0.06 0.03 0.01 0.00 0.00 0.00 0.00 0.00 0.02 0.07 0.10 0.08
0.00 0.00 0.00 0.00 0.00 0.00 0.00 0.00 0.00 0.00 0.00 0.00 0.00 0.00 0.00 0.00 0.00 0.00 0.00 0.00 0.00 0.00 0.02 0.09 0.05 0.05 0.05 0.05 0.05 0.06 0.05 0.02 0.00 0.00 0.00 0.00 0.00 0.00 0.03 0.11 0.16 0.15 0.14 0.10
0.00 0.00 0.00 0.00 0.00 0.00 0.00 0.00 0.00 0.00 0.00 0.00 0.00 0.00 0.00 0.00 0.00 0.00 0.00 0.00 0.00 0.00 0.05 0.03 0.01 0.02 0.03 0.03 0.02 0.02 0.01 0.00 0.00 0.00 0.00 0.00 0.04 0.12 0.19 0.19 0.17 0.11 0.03 0.00
0.02 0.01 0.00 0.00 0.00 0.00 0.00 0.00 0.00 0.00 0.00 0.00 0.00 0.00 0.00 0.00 0.00 0.00 0.00 0.00 0.00 0.00 0.00 0.00 0.00 0.00 0.01 0.01 0.00 0.00 0.00 0.00 0.00 0.00 0.02 0.10 0.20 0.21 0.15 0.07 0.01 0.00 0.00 0.00
0.04 0.01 0.00 0.00 0.00 0.00 0.00 0.00 0.00 0.00 0.00 0.00 0.00 0.00 0.00 0.00 0.00 0.00 0.00 0.00 0.00 0.00 0.00 0.00 0.00 0.00 0.00 0.00 0.00 0.00 0.00 0.00 0.01 0.11 0.23 0.21 0.11 0.02 0.00 0.00 0.00 0.00 0.00 0.00
0.06 0.04 0.00 0.00 0.00 0.00 0.00 0.00 0.00 0.00 0.00 0.00 0.00 0.00 0.00 0.00 0.00 0.00 0.00 0.00 0.00 0.00 0.00 0.00 0.00 0.00 0.00 0.00 0.00 0.01 0.05 0.12 0.17 0.13 0.02 0.00 0.00 0.00 0.00 0.00 0.00 0.00 0.00 0.00
0.05 0.06 0.01 0.00 0.00 0.00 0.00 0.00 0.00 0.00 0.00 0.00 0.00 0.00 0.00 0.00 0.00 0.00 0.00 0.00 0.00 0.00 0.00 0.00 0.00 0.00 0.00 0.00 0.01 0.03 0.03 0.01 0.00 0.00 0.00 0.00 0.00 0.00 0.00 0.00 0.00 0.00 0.00 0.00
0.02 0.00 0.00 0.00 0.00 0.00 0.00 0.00 0.00 0.00 0.00 0.00 0.00 0.00 0.00 0.00 0.00 0.00 0.00 0.00 0.00 0.00 0.00 0.00 0.00 0.00 0.00 0.00 0.00 0.00 0.00 0.00 0.00 0.00 0.00 0.00 0.00 0.00 0.00 0.00 0.00 0.00 0.00 0.00
0.01 0.01 0.01 0.00 0.00 0.00 0.00 0.00 0.00 0.00 0.00 0.00 0.00 0.00 0.00 0.00 0.00 0.00 0.00 0.00 0.00 0.00 0.00 0.00 0.00 0.00 0.00 0.00 0.00 0.00 0.00 0.00 0.00 0.00 0.00 0.00 0.00 0.00 0.00 0.00 0.00 0.00 0.00 0.00
0.00 0.00 0.00 0.00 0.00 0.00 0.00 0.00 0.00 0.00 0.00 0.00 0.00 0.00 0.00 0.00 0.00 0.00 0.00 0.00 0.00 0.00 0.00 0.00 0.00 0.00 0.00 0.00 0.00 0.00 0.00 0.00 0.00 0.00 0.00 0.00 0.00 0.00 0.00 0.00 0.00 0.00 0.00 0.00
0.00 0.01 0.01 0.00 0.00 0.00 0.00 0.00 0.00 0.00 0.00 0.00 0.00 0.00 0.00 0.00 0.00 0.00 0.00 0.00 0.00 0.00 0.00 0.00 0.00 0.00 0.00 0.00 0.00 0.00 0.00 0.00 0.00 0.00 0.00 0.00 0.00 0.00 0.00 0.00 0.00 0.00 0.00 0.00
0.00 0.01 0.00 0.00 0.00 0.00 0.00 0.00 0.00 0.00 0.00 0.00 0.00 0.00 0.00 0.00 0.00 0.00 0.00 0.00 0.00 0.00 0.00 0.00 0.00 0.00 0.00 0.00 0.00 0.00 0.00 0.00 0.00 0.00 0.00 0.00 0.00 0.00 0.00 0.00 0.00 0.00 0.00 0.01
0.00 0.00 0.00 0.00 0.00 0.00 0.00 0.00 0.00 0.00 0.00 0.00 0.00 0.00 0.00 0.00 0.00 0.00 0.00 0.00 0.00 0.00 0.00 0.00 0.00 0.00 0.00 0.00 0.00 0.00 0.00 0.00 0.00 0.00 0.00 0.00 0.00 0.00 0.00 0.01 0.02 0.02 0.01 0.03
0.00 0.00 0.00 0.00 0.00 0.00 0.00 0.00 0.00 0.00 0.00 0.00 0.00 0.00 0.00 0.00 0.00 0.00 0.00 0.00 0.00 0.00 0.00 0.00 0.00 0.00 0.00 0.00 0.00 0.00 0.00 0.00 0.00 0.00 0.00 0.00 0.01 0.02 0.03 0.05 0.06 0.04 0.02 0.01
0.00 0.00 0.00 0.00 0.00 0.00 0.00 0.00 0.00 0.00 0.00 0.00 0.00 0.00 0.00 0.00 0.00 0.00 0.00 0.00 0.00 0.00 0.00 0.00 0.00 0.00 0.00 0.00 0.00 0.00 0.00 0.01 0.01 0.01 0.02 0.01 0.02 0.04 0.04 0.05 0.05 0.04 0.03 0.01
0.00 0.00 0.00 0.00 0.00 0.00 0.00 0.00 0.00 0.00 0.00 0.00 0.00 0.00 0.00 0.00 0.00 0.00 0.00 0.00 0.00 0.00 0.00 0.01 0.02 0.01 0.02 0.03 0.04 0.04 0.04 0.04 0.03 0.01 0.01 0.02 0.02 0.03 0.04 0.06 0.05 0.05 0.05 0.04
0.00 0.00 0.00 0.00 0.00 0.00 0.00 0.00 0.00 0.00 0.00 0.00 0.00 0.01 0.02 0.04 0.06 0.09 0.10 0.08 0.07 0.05 0.05 0.06 0.07 0.11 0.12 0.11 0.08 0.04 0.02 0.02 0.01 0.01 0.01 0.01 0.01 0.02 0.06 0.09 0.08 0.07 0.04 0.02
0.01 0.00 0.00 0.00 0.00 0.00 0.00 0.00 0.00 0.01 0.03 0.05 0.09 0.14 0.18 0.23 0.24 0.26 0.25 0.24 0.23 0.21 0.21 0.17 0.14 0.13 0.10 0.06 0.04 0.02 0.01 0.01 0.01 0.01 0.01 0.04 0.07 0.08 0.07 0.04 0.04 0.04 0.07 0.11
0.06 0.04 0.03 0.03 0.02 0.02 0.03 0.06 0.10 0.15 0.20 0.23 0.30 0.39 0.45 0.46 0.41 0.38 0.34 0.34 0.32 0.30 0.25 0.18 0.11 0.06 0.04 0.02 0.01 0.00 0.01 0.01 0.01 0.01 0.02 0.03 0.04 0.03 0.03 0.05 0.09 0.12 0.11 0.11
0.29 0.27 0.26 0.25 0.29 0.33 0.37 0.43 0.46 0.56 0.67 0.63 0.55 0.53 0.48 0.48 0.45 0.41 0.35 0.30 0.24 0.15 0.08 0.05 0.03 0.02 0.01 0.00 0.00 0.00 0.01 0.01 0.01 0.02 0.04 0.05 0.05 0.09 0.15 0.14 0.11 0.09 0.09 0.09
0.38 0.40 0.45 0.48 0.47 0.55 0.59 0.58 0.49 0.46 0.43 0.42 0.38 0.35 0.31 0.30 0.25 0.20 0.16 0.13 0.10 0.05 0.03 0.02 0.01 0.00 0.00 0.00 0.00 0.00 0.00 0.01 0.02 0.03 0.03 0.05 0.11 0.12 0.10 0.07 0.06 0.05 0.05 0.05
0.31 0.30 0.31 0.33 0.29 0.30 0.35 0.33 0.32 0.26 0.25 0.24 0.23 0.23 0.20 0.18 0.15 0.11 0.10 0.08 0.05 0.03 0.02 0.01 0.00 0.00 0.00 0.00 0.00 0.00 0.00 0.01 0.01 0.01 0.02 0.04 0.06 0.06 0.06 0.05 0.04 0.04 0.04 0.04
0.26 0.26 0.28 0.28 0.20 0.13 0.16 0.21 0.16 0.15 0.13 0.12 0.11 0.09 0.07 0.06 0.06 0.04 0.03 0.02 0.01 0.01 0.00 0.00 0.00 0.00 0.00 0.00 0.00 0.01 0.01 0.01 0.01 0.02 0.02 0.02 0.03 0.04 0.04 0.03 0.03 0.03 0.03 0.03
0.23 0.25 0.27 0.24 0.17 0.18 0.14 0.12 0.08 0.07 0.05 0.05 0.04 0.03 0.03 0.03 0.02 0.02 0.01 0.00 0.00 0.02 0.01 0.00 0.00 0.00 0.00 0.01 0.02 0.01 0.01 0.01 0.01 0.02 0.02 0.02 0.03 0.03 0.03 0.03 0.03 0.03 0.02 0.02
0.20 0.19 0.20 0.18 0.16 0.14 0.11 0.07 0.07 0.07 0.05 0.05 0.05 0.04 0.04 0.03 0.02 0.02 0.02 0.02 0.01 0.02 0.03 0.02 0.01 0.00 0.01 0.02 0.01 0.01 0.02 0.01 0.01 0.02 0.02 0.02 0.02 0.02 0.02 0.02 0.02 0.02 0.02 0.02
0.19 0.18 0.14 0.11 0.12 0.11 0.10 0.08 0.07 0.08 0.08 0.07 0.06 0.06 0.06 0.05 0.04 0.03 0.04 0.03 0.03 0.02 0.02 0.02 0.02 0.01 0.01 0.01 0.01 0.02 0.02 0.02 0.02 0.02 0.01 0.01 0.02 0.02 0.02 0.02 0.02 0.01 0.01 0.01

GFSNGP_prec_precacc24_063.txt.gz
Total_Precipitation_Accumulation
0.00 0.00 0.00 0.00 0.00 0.00 0.00 0.00 0.01 0.00 0.00 0.00 0.00 0.00 0.00 0.00 0.00 0.00 0.00 0.00 0.01 0.01 0.01 0.02 0.06 0.09 0.10 0.15 0.18 0.21 0.23 0.19 0.15 0.09 0.08 0.05 0.03 0.03 0.02 0.01 0.01 0.01 0.03 0.08
0.00 0.00 0.00 0.00 0.00 0.00 0.00 0.00 0.00 0.00 0.00 0.00 0.00 0.00 0.00 0.00 0.00 0.00 0.00 0.00 0.00 0.00 0.01 0.03 0.04 0.07 0.10 0.09 0.11 0.10 0.17 0.13 0.07 0.03 0.01 0.02 0.01 0.00 0.00 0.00 0.02 0.07 0.10 0.08
0.00 0.00 0.00 0.00 0.00 0.00 0.00 0.00 0.00 0.00 0.00 0.00 0.00 0.00 0.00 0.00 0.00 0.00 0.00 0.00 0.00 0.00 0.02 0.11 0.05 0.05 0.06 0.07 0.07 0.08 0.07 0.03 0.01 0.02 0.01 0.01 0.00 0.00 0.03 0.11 0.16 0.15 0.14 0.10
0.00 0.00 0.01 0.00 0.00 0.00 0.00 0.00 0.00 0.00 0.00 0.00 0.00 0.00 0.00 0.00 0.00 0.00 0.00 0.00 0.00 0.00 0.08 0.06 0.01 0.01 0.02 0.03 0.03 0.02 0.01 0.00 0.00 0.01 0.00 0.00 0.04 0.12 0.19 0.19 0.17 0.11 0.03 0.00
0.02 0.01 0.00 0.00 0.00 0.00 0.00 0.00 0.00 0.00 0.00 0.00 0.00 0.00 0.00 0.00 0.00 0.00 0.00 0.00 0.00 0.00 0.00 0.00 0.00 0.00 0.01 0.01 0.00 0.00 0.00 0.00 0.00 0.00 0.02 0.10 0.20 0.21 0.15 0.07 0.01 0.00 0.00 0.00
0.08 0.02 0.00 0.00 0.00 0.00 0.00 0.00 0.00 0.00 0.00 0.00 0.00 0.00 0.00 0.00 0.00 0.00 0.00 0.00 0.00 0.00 0.00 0.00 0.00 0.00 0.00 0.00 0.00 0.00 0.00 0.00 0.01 0.11 0.23 0.21 0.10 0.02 0.00 0.00 0.00 0.00 0.00 0.00
0.08 0.09 0.01 0.00 0.00 0.00 0.00 0.00 0.00 0.00 0.00 0.00 0.00 0.00 0.00 0.00 0.00 0.00 0.00 0.00 0.00 0.00 0.00 0.00 0.00 0.00 0.00 0.00 0.00 0.01 0.05 0.12 0.17 0.12 0.02 0.00 0.00 0.00 0.00 0.00 0.00 0.00 0.00 0.00
0.10 0.08 0.02 0.00 0.00 0.00 0.00 0.00 0.00 0.00 0.00 0.00 0.00 0.00 0.00 0.00 0.00 0.00 0.00 0.00 0.00 0.00 0.00 0.00 0.00 0.00 0.00 0.00 0.01 0.03 0.03 0.01 0.00 0.00 0.00 0.00 0.00 0.00 0.00 0.00 0.00 0.00 0.00 0.00
0.03 0.01 0.01 0.01 0.00 0.00 0.00 0.00 0.00 0.00 0.00 0.00 0.00 0.00 0.00 0.00 0.00 0.00 0.00 0.00 0.00 0.00 0.00 0.00 0.00 0.00 0.00 0.00 0.00 0.00 0.00 0.00 0.00 0.00 0.00 0.00 0.00 0.00 0.00 0.00 0.00 0.00 0.00 0.00
0.01 0.01 0.01 0.01 0.02 0.00 0.00 0.00 0.00 0.00 0.01 0.01 0.01 0.00 0.00 0.00 0.00 0.00 0.00 0.00 0.00 0.00 0.00 0.00 0.00 0.00 0.00 0.00 0.00 0.00 0.00 0.00 0.00 0.00 0.00 0.00 0.00 0.00 0.00 0.00 0.00 0.00 0.00 0.00
0.02 0.00 0.01 0.00 0.01 0.06 0.04 0.00 0.00 0.00 0.00 0.00 0.00 0.00 0.00 0.00 0.00 0.00 0.00 0.00 0.00 0.00 0.00 0.00 0.00 0.00 0.00 0.00 0.00 0.00 0.00 0.00 0.00 0.00 0.00 0.00 0.00 0.00 0.00 0.00 0.00 0.00 0.00 0.00
0.03 0.01 0.02 0.00 0.00 0.00 0.00 0.00 0.00 0.00 0.00 0.00 0.00 0.00 0.00 0.00 0.00 0.00 0.00 0.00 0.00 0.00 0.00 0.00 0.00 0.00 0.00 0.00 0.00 0.00 0.00 0.00 0.00 0.00 0.00 0.00 0.00 0.00 0.00 0.00 0.00 0.00 0.00 0.00
0.00 0.01 0.00 0.00 0.00 0.00 0.00 0.00 0.00 0.00 0.00 0.00 0.01 0.00 0.00 0.00 0.00 0.00 0.00 0.00 0.00 0.00 0.00 0.00 0.00 0.00 0.00 0.00 0.00 0.00 0.00 0.00 0.00 0.00 0.00 0.00 0.00 0.00 0.00 0.00 0.00 0.00 0.00 0.01
0.00 0.00 0.00 0.00 0.00 0.00 0.00 0.00 0.00 0.00 0.00 0.00 0.00 0.00 0.00 0.00 0.00 0.00 0.00 0.00 0.00 0.00 0.00 0.00 0.00 0.00 0.00 0.00 0.00 0.00 0.00 0.00 0.00 0.00 0.00 0.00 0.00 0.00 0.00 0.01 0.02 0.03 0.01 0.03
0.00 0.00 0.00 0.00 0.00 0.00 0.00 0.00 0.00 0.00 0.00 0.00 0.00 0.00 0.00 0.00 0.00 0.00 0.00 0.00 0.00 0.00 0.00 0.00 0.00 0.00 0.00 0.00 0.00 0.00 0.00 0.00 0.00 0.00 0.00 0.00 0.00 0.01 0.02 0.02 0.04 0.04 0.02 0.01
0.00 0.00 0.00 0.00 0.00 0.00 0.00 0.00 0.00 0.00 0.00 0.00 0.00 0.00 0.00 0.00 0.00 0.00 0.00 0.00 0.00 0.00 0.00 0.00 0.00 0.00 0.00 0.00 0.00 0.00 0.01 0.01 0.01 0.01 0.02 0.03 0.03 0.03 0.02 0.03 0.03 0.03 0.02 0.01
0.00 0.00 0.00 0.00 0.00 0.00 0.00 0.00 0.00 0.00 0.00 0.00 0.00 0.00 0.00 0.00 0.00 0.00 0.00 0.00 0.00 0.00 0.00 0.01 0.02 0.02 0.03 0.04 0.05 0.06 0.08 0.09 0.09 0.07 0.07 0.05 0.02 0.02 0.02 0.03 0.03 0.04 0.05 0.04
0.00 0.00 0.00 0.00 0.00 0.00 0.00 0.00 0.00 0.00 0.00 0.00 0.00 0.01 0.02 0.04 0.07 0.09 0.10 0.09 0.07 0.06 0.06 0.08 0.11 0.16 0.20 0.23 0.25 0.23 0.19 0.14 0.10 0.07 0.04 0.02 0.02 0.01 0.04 0.08 0.08 0.07 0.04 0.02
0.01 0.00 0.00 0.00 0.00 0.00 0.00 0.00 0.00 0.01 0.03 0.05 0.09 0.14 0.19 0.25 0.27 0.30 0.30 0.31 0.33 0.34 0.38 0.33 0.32 0.33 0.31 0.26 0.20 0.16 0.12 0.08 0.04 0.02 0.01 0.01 0.01 0.01 0.04 0.03 0.03 0.04 0.07 0.09
0.07 0.04 0.03 0.03 0.02 0.02 0.04 0.07 0.10 0.16 0.21 0.24 0.32 0.43 0.51 0.56 0.52 0.49 0.45 0.46 0.45 0.43 0.41 0.34 0.26 0.19 0.15 0.10 0.07 0.05 0.03 0.03 0.01 0.01 0.00 0.01 0.02 0.03 0.03 0.04 0.07 0.11 0.09 0.07
0.32 0.29 0.28 0.28 0.31 0.36 0.40 0.47 0.48 0.61 0.73 0.69 0.60 0.61 0.57 0.59 0.54 0.49 0.43 0.39 0.37 0.27 0.20 0.17 0.13 0.10 0.06 0.05 0.05 0.03 0.02 0.01 0.00 0.00 0.00 0.01 0.01 0.01 0.02 0.04 0.07 0.07 0.08 0.07
0.43 0.44 0.50 0.52 0.50 0.60 0.65 0.63 0.54 0.51 0.48 0.47 0.44 0.41 0.37 0.38 0.33 0.28 0.25 0.21 0.20 0.15 0.12 0.10 0.08 0.05 0.02 0.01 0.01 0.01 0.01 0.01 0.00 0.01 0.01 0.00 0.01 0.01 0.01 0.02 0.03 0.04 0.05 0.04
0.37 0.34 0.35 0.38 0.33 0.36 0.41 0.39 0.38 0.31 0.30 0.30 0.29 0.29 0.26 0.25 0.22 0.16 0.16 0.15 0.11 0.09 0.07 0.04 0.01 0.00 0.01 0.02 0.01 0.01 0.00 0.00 0.00 0.01 0.01 0.01 0.01 0.02 0.01 0.01 0.02 0.02 0.03 0.03
0.31 0.31 0.33 0.33 0.23 0.14 0.19 0.27 0.20 0.19 0.17 0.16 0.15 0.14 0.10 0.09 0.10 0.08 0.06 0.05 0.04 0.03 0.01 0.00 0.00 0.00 0.00 0.01 0.01 0.01 0.01 0.01 0.01 0.02 0.01 0.01 0.01 0.02 0.02 0.02 0.02 0.02 0.02 0.02
0.27 0.29 0.30 0.26 0.19 0.22 0.18 0.16 0.10 0.10 0.07 0.07 0.07 0.06 0.05 0.04 0.03 0.04 0.02 0.01 0.02 0.03 0.01 0.00 0.00 0.00 0.01 0.01 0.02 0.01 0.01 0.01 0.01 0.02 0.01 0.01 0.02 0.02 0.01 0.01 0.02 0.02 0.02 0.02
0.23 0.22 0.23 0.20 0.19 0.16 0.13 0.09 0.09 0.09 0.05 0.06 0.07 0.06 0.05 0.04 0.03 0.03 0.03 0.02 0.02 0.02 0.03 0.02 0.02 0.00 0.01 0.02 0.01 0.01 0.01 0.01 0.02 0.02 0.02 0.01 0.01 0.01 0.01 0.01 0.02 0.01 0.02 0.02
0.21 0.19 0.15 0.12 0.13 0.12 0.10 0.09 0.07 0.09 0.09 0.08 0.07 0.07 0.07 0.05 0.04 0.04 0.04 0.04 0.03 0.02 0.03 0.02 0.02 0.02 0.01 0.01 0.02 0.02 0.02 0.02 0.02 0.02 0.01 0.01 0.01 0.01 0.01 0.01 0.01 0.01 0.00 0.00

GFSNGP_prec_precacc24_069.txt.gz
Total_Precipitation_Accumulation
0.00 0.00 0.00 0.00 0.00 0.00 0.00 0.00 0.01 0.00 0.00 0.00 0.00 0.00 0.00 0.00 0.00 0.00 0.00 0.00 0.00 0.00 0.01 0.02 0.04 0.05 0.05 0.14 0.19 0.23 0.26 0.24 0.22 0.18 0.16 0.14 0.13 0.07 0.05 0.04 0.04 0.05 0.07 0.11
0.00 0.00 0.00 0.00 0.00 0.00 0.00 0.00 0.00 0.00 0.00 0.00 0.00 0.00 0.00 0.00 0.00 0.00 0.00 0.00 0.00 0.00 0.00 0.01 0.01 0.03 0.06 0.08 0.10 0.10 0.18 0.16 0.11 0.06 0.08 0.08 0.07 0.07 0.03 0.03 0.06 0.09 0.12 0.12
0.01 0.00 0.00 0.01 0.00 0.00 0.00 0.00 0.00 0.00 0.00 0.00 0.00 0.00 0.00 0.00 0.00 0.00 0.00 0.00 0.00 0.00 0.02 0.11 0.04 0.04 0.02 0.05 0.06 0.08 0.09 0.07 0.06 0.08 0.06 0.04 0.04 0.04 0.04 0.07 0.14 0.16 0.17 0.12
0.07 0.02 0.10 0.03 0.00 0.00 0.00 0.00 0.00 0.00 0.00 0.00 0.00 0.00 0.00 0.00 0.00 0.00 0.00 0.00 0.00 0.00 0.08 0.06 0.01 0.01 0.01 0.02 0.02 0.02 0.03 0.03 0.04 0.06 0.05 0.03 0.02 0.05 0.11 0.18 0.20 0.13 0.05 0.02
0.14 0.07 0.05 0.00 0.00 0.00 0.00 0.00 0.00 0.00 0.00 0.00 0.00 0.00 0.00 0.00 0.00 0.00 0.00 0.00 0.00 0.00 0.00 0.00 0.00 0.00 0.00 0.00 0.00 0.01 0.02 0.02 0.02 0.02 0.03 0.03 0.09 0.16 0.16 0.09 0.04 0.02 0.02 0.00
0.25 0.15 0.07 0.00 0.00 0.00 0.00 0.00 0.00 0.00 0.00 0.00 0.00 0.00 0.00 0.00 0.00 0.00 0.00 0.00 0.00 0.00 0.00 0.00 0.00 0.00 0.00 0.00 0.00 0.00 0.01 0.01 0.00 0.02 0.08 0.12 0.09 0.03 0.01 0.01 0.02 0.01 0.00 0.00
0.27 0.21 0.04 0.00 0.00 0.00 0.01 0.01 0.00 0.00 0.00 0.00 0.00 0.00 0.00 0.00 0.00 0.00 0.00 0.00 0.00 0.00 0.00 0.00 0.00 0.00 0.00 0.00 0.00 0.00 0.00 0.01 0.02 0.03 0.01 0.00 0.01 0.01 0.01 0.01 0.00 0.00 0.00 0.00
0.30 0.26 0.10 0.02 0.06 0.07 0.02 0.00 0.00 0.00 0.00 0.00 0.00 0.00 0.00 0.00 0.00 0.00 0.00 0.00 0.00 0.00 0.00 0.00 0.00 0.00 0.00 0.00 0.00 0.00 0.00 0.00 0.00 0.00 0.00 0.01 0.01 0.00 0.00 0.00 0.00 0.00 0.00 0.00
0.07 0.05 0.01 0.03 0.08 0.09 0.04 0.01 0.01 0.00 0.00 0.00 0.00 0.00 0.00 0.00 0.00 0.00 0.00 0.00 0.00 0.00 0.00 0.00 0.00 0.00 0.00 0.00 0.00 0.00 0.00 0.00 0.00 0.00 0.00 0.00 0.00 0.00 0.00 0.00 0.00 0.00 0.00 0.00
0.01 0.01 0.01 0.01 0.02 0.01 0.00 0.01 0.01 0.00 0.01 0.01 0.01 0.01 0.01 0.00 0.00 0.00 0.00 0.00 0.00 0.00 0.00 0.00 0.00 0.00 0.00 0.00 0.00 0.00 0.00 0.00 0.00 0.00 0.00 0.00 0.00 0.00 0.00 0.00 0.00 0.00 0.00 0.00
0.02 0.00 0.01 0.01 0.02 0.06 0.04 0.00 0.00 0.00 0.00 0.00 0.00 0.00 0.00 0.00 0.00 0.00 0.00 0.00 0.00 0.00 0.00 0.00 0.00 0.00 0.00 0.00 0.00 0.00 0.00 0.00 0.00 0.00 0.00 0.00 0.00 0.00 0.00 0.00 0.00 0.00 0.00 0.00
0.05 0.03 0.03 0.01 0.01 0.01 0.00 0.00 0.00 0.00 0.00 0.00 0.00 0.00 0.00 0.00 0.00 0.00 0.00 0.00 0.00 0.00 0.00 0.00 0.00 0.00 0.00 0.00 0.00 0.00 0.00 0.00 0.00 0.00 0.00 0.00 0.00 0.00 0.00 0.00 0.00 0.00 0.00 0.00
0.02 0.03 0.02 0.02 0.00 0.00 0.00 0.00 0.00 0.00 0.00 0.00 0.01 0.00 0.00 0.00 0.00 0.00 0.00 0.00 0.00 0.00 0.00 0.00 0.00 0.00 0.00 0.00 0.00 0.00 0.00 0.00 0.00 0.00 0.00 0.00 0.00 0.00 0.00 0.00 0.00 0.00 0.00 0.00
0.04 0.03 0.02 0.00 0.00 0.00 0.00 0.00 0.00 0.00 0.00 0.00 0.00 0.00 0.00 0.00 0.00 0.00 0.00 0.00 0.00 0.00 0.00 0.00 0.00 0.00 0.00 0.00 0.00 0.00 0.00 0.00 0.00 0.00 0.00 0.00 0.00 0.01 0.01 0.01 0.01 0.01 0.02 0.02
0.02 0.02 0.02 0.02 0.01 0.01 0.01 0.01 0.01 0.01 0.00 0.00 0.00 0.00 0.00 0.00 0.00 0.00 0.00 0.00 0.00 0.00 0.00 0.00 0.00 0.01 0.01 0.02 0.02 0.01 0.00 0.01 0.02 0.05 0.07 0.07 0.05 0.04 0.05 0.07 0.08 0.07 0.05 0.03
0.00 0.00 0.02 0.03 0.03 0.02 0.01 0.01 0.00 0.00 0.00 0.00 0.00 0.00 0.00 0.00 0.00 0.00 0.00 0.00 0.00 0.01 0.02 0.03 0.04 0.03 0.03 0.03 0.04 0.06 0.09 0.12 0.12 0.13 0.13 0.13 0.14 0.13 0.12 0.10 0.08 0.06 0.06 0.06
0.00 0.00 0.00 0.02 0.02 0.01 0.01 0.01 0.01 0.00 0.00 0.00 0.00 0.00 0.00 0.00 0.00 0.00 0.00 0.00 0.00 0.01 0.02 0.05 0.08 0.09 0.12 0.16 0.18 0.22 0.24 0.25 0.23 0.22 0.22 0.20 0.16 0.12 0.09 0.09 0.08 0.08 0.07 0.07
0.00 0.00 0.00 0.00 0.01 0.00 0.00 0.00 0.00 0.00 0.00 0.00 0.00 0.01 0.02 0.04 0.07 0.10 0.11 0.10 0.10 0.16 0.25 0.31 0.35 0.40 0.42 0.43 0.41 0.38 0.34 0.30 0.27 0.22 0.18 0.16 0.12 0.09 0.08 0.09 0.07 0.05 0.04 0.03
0.02 0.02 0.02 0.04 0.05 0.05 0.04 0.04 0.03 0.03 0.04 0.05 0.09 0.15 0.20 0.26 0.29 0.36 0.40 0.44 0.51 0.53 0.65 0.56 0.50 0.47 0.43 0.38 0.31 0.27 0.22 0.17 0.14 0.11 0.10 0.09 0.08 0.07 0.06 0.04 0.04 0.04 0.03 0.03
0.08 0.06 0.04 0.04 0.04 0.05 0.07 0.11 0.14 0.19 0.26 0.27 0.35 0.48 0.59 0.69 0.67 0.67 0.62 0.63 0.63 0.60 0.56 0.46 0.35 0.28 0.24 0.19 0.15 0.11 0.10 0.09 0.08 0.08 0.07 0.05 0.04 0.04 0.04 0.04 0.04 0.04 0.04 0.04
0.36 0.34 0.33 0.33 0.38 0.44 0.50 0.59 0.58 0.73 0.91 0.87 0.74 0.77 0.74 0.79 0.74 0.66 0.55 0.49 0.54 0.41 0.32 0.27 0.22 0.18 0.13 0.11 0.09 0.07 0.05 0.04 0.03 0.03 0.03 0.03 0.03 0.03 0.03 0.02 0.02 0.01 0.02 0.02
0.52 0.52 0.59 0.61 0.58 0.71 0.79 0.77 0.65 0.63 0.62 0.59 0.56 0.53 0.47 0.51 0.45 0.39 0.36 0.31 0.33 0.24 0.19 0.16 0.13 0.09 0.06 0.05 0.04 0.04 0.03 0.03 0.02 0.02 0.01 0.01 0.01 0.01 0.01 0.01 0.01 0.01 0.01 0.01
0.47 0.44 0.44 0.46 0.42 0.46 0.50 0.47 0.47 0.38 0.38 0.38 0.37 0.37 0.32 0.33 0.30 0.21 0.22 0.24 0.17 0.14 0.10 0.08 0.05 0.03 0.03 0.03 0.02 0.01 0.01 0.00 0.00 0.00 0.01 0.01 0.01 0.01 0.01 0.01 0.01 0.01 0.01 0.01
0.42 0.40 0.43 0.43 0.28 0.17 0.25 0.36 0.26 0.24 0.22 0.21 0.21 0.19 0.14 0.12 0.15 0.13 0.11 0.10 0.07 0.04 0.02 0.01 0.00 0.00 0.00 0.01 0.01 0.01 0.01 0.01 0.01 0.01 0.01 0.01 0.01 0.02 0.02 0.02 0.01 0.01 0.01 0.01
0.36 0.37 0.37 0.31 0.22 0.28 0.24 0.21 0.13 0.14 0.10 0.10 0.10 0.09 0.07 0.05 0.06 0.08 0.03 0.02 0.02 0.03 0.01 0.00 0.00 0.00 0.01 0.01 0.02 0.01 0.01 0.01 0.02 0.01 0.01 0.01 0.01 0.01 0.01 0.01 0.02 0.02 0.01 0.01
0.28 0.27 0.27 0.23 0.23 0.19 0.16 0.11 0.12 0.12 0.07 0.07 0.09 0.08 0.06 0.05 0.03 0.03 0.03 0.03 0.02 0.02 0.04 0.03 0.02 0.00 0.01 0.02 0.01 0.01 0.01 0.01 0.01 0.02 0.02 0.01 0.01 0.01 0.01 0.01 0.01 0.01 0.01 0.01
0.23 0.21 0.16 0.13 0.15 0.14 0.11 0.09 0.08 0.10 0.10 0.08 0.09 0.08 0.07 0.06 0.05 0.04 0.04 0.04 0.03 0.03 0.03 0.02 0.02 0.02 0.01 0.01 0.01 0.01 0.02 0.02 0.02 0.02 0.01 0.01 0.01 0.01 0.01 0.01 0.01 0.01 0.00 0.00

GFSNGP_prec_precacc24_075.txt.gz
Total_Precipitation_Accumulation
0.00 0.00 0.00 0.00 0.00 0.00 0.00 0.00 0.01 0.00 0.00 0.00 0.00 0.00 0.00 0.00 0.00 0.00 0.00 0.00 0.00 0.00 0.00 0.00 0.00 0.01 0.02 0.10 0.14 0.16 0.21 0.19 0.17 0.18 0.15 0.13 0.14 0.08 0.07 0.04 0.04 0.07 0.09 0.13
0.00 0.00 0.00 0.00 0.00 0.00 0.00 0.00 0.00 0.00 0.00 0.00 0.00 0.00 0.00 0.00 0.00 0.00 0.00 0.00 0.00 0.00 0.00 0.00 0.00 0.03 0.05 0.07 0.10 0.09 0.16 0.13 0.11 0.12 0.13 0.10 0.08 0.09 0.06 0.05 0.07 0.07 0.07 0.10
0.02 0.00 0.00 0.01 0.00 0.00 0.00 0.00 0.00 0.00 0.00 0.00 0.00 0.00 0.00 0.00 0.00 0.00 0.00 0.00 0.00 0.00 0.02 0.11 0.04 0.04 0.02 0.05 0.06 0.08 0.08 0.06 0.07 0.10 0.09 0.10 0.08 0.08 0.13 0.11 0.11 0.10 0.11 0.10
0.07 0.02 0.11 0.04 0.00 0.00 0.00 0.00 0.00 0.00 0.00 0.00 0.00 0.00 0.00 0.00 0.00 0.00 0.00 0.00 0.00 0.00 0.08 0.06 0.01 0.01 0.01 0.02 0.02 0.02 0.03 0.03 0.04 0.07 0.07 0.05 0.05 0.05 0.08 0.12 0.12 0.09 0.07 0.09
0.16 0.07 0.05 0.00 0.00 0.00 0.00 0.00 0.00 0.00 0.00 0.00 0.00 0.00 0.00 0.00 0.00 0.00 0.00 0.00 0.00 0.00 0.00 0.00 0.00 0.00 0.00 0.00 0.00 0.01 0.02 0.02 0.03 0.03 0.04 0.04 0.05 0.08 0.05 0.07 0.09 0.07 0.06 0.05
0.29 0.17 0.07 0.00 0.00 0.00 0.00 0.00 0.00 0.00 0.00 0.00 0.00 0.00 0.00 0.00 0.00 0.00 0.00 0.00 0.00 0.00 0.00 0.00 0.00 0.00 0.00 0.00 0.00 0.00 0.01 0.02 0.01 0.01 0.01 0.03 0.03 0.03 0.03 0.04 0.06 0.06 0.06 0.05
0.30 0.24 0.04 0.00 0.00 0.01 0.02 0.01 0.00 0.00 0.00 0.00 0.00 0.00 0.00 0.00 0.00 0.00 0.00 0.00 0.00 0.00 0.00 0.00 0.00 0.00 0.00 0.00 0.00 0.00 0.00 0.00 0.01 0.01 0.02 0.03 0.03 0.02 0.03 0.04 0.05 0.05 0.05 0.05
0.32 0.28 0.10 0.02 0.08 0.12 0.04 0.01 0.00 0.00 0.00 0.00 0.00 0.00 0.00 0.00 0.00 0.00 0.00 0.00 0.00 0.00 0.00 0.00 0.00 0.00 0.00 0.00 0.00 0.00 0.00 0.01 0.02 0.05 0.06 0.05 0.04 0.03 0.04 0.05 0.06 0.06 0.06 0.07
0.07 0.05 0.01 0.03 0.08 0.09 0.08 0.06 0.04 0.01 0.00 0.00 0.00 0.00 0.00 0.00 0.00 0.00 0.00 0.00 0.00 0.00 0.00 0.00 0.00 0.00 0.00 0.00 0.00 0.00 0.01 0.01 0.03 0.03 0.04 0.03 0.04 0.05 0.06 0.06 0.06 0.06 0.06 0.06
0.01 0.01 0.01 0.01 0.02 0.01 0.00 0.01 0.01 0.01 0.01 0.02 0.02 0.01 0.01 0.00 0.00 0.00 0.00 0.00 0.00 0.00 0.00 0.00 0.00 0.00 0.00 0.01 0.02 0.02 0.02 0.01 0.01 0.02 0.03 0.02 0.04 0.04 0.05 0.05 0.06 0.07 0.09 0.09
0.02 0.00 0.01 0.01 0.02 0.06 0.04 0.01 0.00 0.01 0.00 0.01 0.00 0.00 0.00 0.01 0.00 0.00 0.00 0.00 0.00 0.00 0.00 0.00 0.00 0.01 0.02 0.03 0.02 0.01 0.00 0.00 0.00 0.01 0.02 0.00 0.02 0.05 0.05 0.05 0.08 0.07 0.06 0.04
0.05 0.03 0.03 0.01 0.01 0.01 0.00 0.01 0.01 0.01 0.01 0.02 0.01 0.00 0.00 0.00 0.00 0.00 0.00 0.00 0.00 0.00 0.00 0.01 0.01 0.00 0.00 0.00 0.00 0.00 0.00 0.00 0.00 0.00 0.01 0.01 0.02 0.05 0.07 0.05 0.07 0.05 0.04 0.03
0.02 0.02 0.03 0.03 0.03 0.01 0.01 0.01 0.00 0.01 0.01 0.02 0.03 0.01 0.01 0.00 0.00 0.00 0.00 0.00 0.00 0.01 0.03 0.02 0.01 0.01 0.01 0.01 0.01 0.00 0.00 0.00 0.00 0.00 0.00 0.01 0.01 0.02 0.03 0.09 0.12 0.16 0.18 0.18
0.04 0.03 0.03 0.02 0.02 0.01 0.01 0.01 0.02 0.01 0.01 0.01 0.02 0.01 0.01 0.00 0.00 0.00 0.00 0.00 0.01 0.01 0.02 0.03 0.06 0.12 0.13 0.07 0.04 0.04 0.05 0.10 0.12 0.12 0.10 0.10 0.11 0.15 0.18 0.21 0.23 0.22 0.17 0.11
0.06 0.06 0.04 0.03 0.03 0.03 0.02 0.03 0.04 0.05 0.04 0.02 0.01 0.01 0.01 0.01 0.00 0.00 0.00 0.00 0.00 0.02 0.06 0.11 0.16 0.22 0.26 0.26 0.25 0.25 0.22 0.19 0.15 0.17 0.19 0.19 0.19 0.20 0.19 0.18 0.16 0.15 0.15 0.14
0.01 0.03 0.04 0.06 0.05 0.03 0.03 0.03 0.02 0.01 0.01 0.01 0.00 0.00 0.00 0.00 0.00 0.00 0.00 0.00 0.01 0.02 0.04 0.07 0.11 0.13 0.11 0.10 0.11 0.14 0.20 0.27 0.26 0.27 0.30 0.29 0.27 0.23 0.19 0.16 0.14 0.13 0.12 0.12
0.00 0.00 0.01 0.04 0.05 0.03 0.04 0.05 0.02 0.01 0.00 0.00 0.00 0.00 0.00 0.00 0.00 0.01 0.01 0.01 0.01 0.03 0.04 0.09 0.19 0.23 0.27 0.33 0.35 0.41 0.42 0.44 0.40 0.35 0.32 0.27 0.22 0.17 0.14 0.13 0.13 0.13 0.13 0.13
0.01 0.01 0.01 0.02 0.02 0.03 0.02 0.01 0.01 0.00 0.01 0.01 0.01 0.02 0.03 0.05 0.09 0.13 0.16 0.13 0.13 0.21 0.36 0.48 0.52 0.56 0.58 0.59 0.54 0.52 0.45 0.40 0.35 0.29 0.24 0.20 0.16 0.13 0.11 0.11 0.10 0.08 0.08 0.07
0.03 0.04 0.04 0.05 0.07 0.07 0.07 0.06 0.06 0.05 0.06 0.08 0.12 0.21 0.27 0.34 0.36 0.46 0.49 0.52 0.61 0.62 0.87 0.74 0.64 0.58 0.55 0.50 0.38 0.33 0.27 0.22 0.17 0.15 0.13 0.12 0.10 0.08 0.07 0.06 0.06 0.06 0.05 0.05
0.07 0.07 0.06 0.06 0.06 0.07 0.09 0.12 0.13 0.18 0.29 0.32 0.44 0.59 0.71 0.86 0.83 0.82 0.72 0.73 0.77 0.76 0.71 0.59 0.42 0.34 0.31 0.25 0.18 0.14 0.13 0.12 0.11 0.10 0.09 0.06 0.05 0.05 0.05 0.04 0.05 0.05 0.04 0.04
0.38 0.36 0.36 0.35 0.39 0.43 0.48 0.57 0.55 0.72 0.98 0.97 0.82 0.88 0.87 0.96 0.88 0.79 0.64 0.59 0.70 0.54 0.42 0.34 0.27 0.24 0.17 0.14 0.11 0.09 0.07 0.05 0.04 0.04 0.03 0.04 0.04 0.04 0.03 0.02 0.02 0.01 0.02 0.02
0.52 0.52 0.59 0.61 0.55 0.68 0.79 0.77 0.66 0.69 0.69 0.68 0.66 0.64 0.56 0.63 0.56 0.47 0.45 0.39 0.45 0.32 0.23 0.19 0.15 0.11 0.07 0.05 0.04 0.04 0.03 0.03 0.02 0.02 0.01 0.01 0.01 0.01 0.01 0.01 0.01 0.01 0.02 0.01
0.50 0.47 0.47 0.47 0.43 0.48 0.53 0.52 0.55 0.44 0.45 0.46 0.46 0.47 0.41 0.42 0.39 0.27 0.28 0.31 0.21 0.16 0.11 0.09 0.05 0.03 0.03 0.03 0.02 0.01 0.01 0.00 0.00 0.00 0.01 0.01 0.01 0.01 0.01 0.01 0.01 0.01 0.01 0.02
0.43 0.41 0.43 0.45 0.31 0.20 0.29 0.44 0.33 0.32 0.28 0.28 0.28 0.26 0.19 0.16 0.19 0.16 0.12 0.11 0.07 0.04 0.02 0.01 0.00 0.00 0.00 0.01 0.01 0.01 0.01 0.01 0.01 0.01 0.01 0.01 0.01 0.02 0.02 0.02 0.01 0.01 0.02 0.01
0.35 0.34 0.34 0.30 0.23 0.31 0.29 0.28 0.18 0.19 0.14 0.14 0.14 0.12 0.09 0.06 0.07 0.09 0.03 0.02 0.02 0.03 0.01 0.00 0.00 0.00 0.01 0.01 0.01 0.01 0.01 0.01 0.02 0.01 0.01 0.01 0.01 0.01 0.01 0.01 0.02 0.02 0.01 0.01
0.25 0.24 0.25 0.21 0.21 0.19 0.17 0.12 0.12 0.12 0.07 0.07 0.09 0.08 0.06 0.05 0.04 0.04 0.03 0.03 0.02 0.02 0.04 0.03 0.02 0.00 0.01 0.02 0.01 0.01 0.01 0.01 0.01 0.02 0.02 0.01 0.01 0.01 0.01 0.01 0.01 0.01 0.01 0.01
0.17 0.15 0.12 0.09 0.10 0.08 0.07 0.06 0.05 0.07 0.07 0.06 0.07 0.07 0.05 0.05 0.05 0.04 0.04 0.04 0.03 0.03 0.03 0.02 0.02 0.02 0.01 0.01 0.01 0.01 0.01 0.01 0.02 0.01 0.01 0.01 0.01 0.01 0.01 0.01 0.01 0.01 0.00 0.00

GFSNGP_prec_precacc24_081.txt.gz
Total_Precipitation_Accumulation
0.02 0.01 0.00 0.00 0.00 0.00 0.00 0.00 0.01 0.00 0.00 0.00 0.00 0.00 0.00 0.00 0.00 0.00 0.00 0.00 0.00 0.00 0.00 0.00 0.00 0.00 0.01 0.09 0.13 0.16 0.18 0.16 0.15 0.17 0.14 0.13 0.13 0.08 0.07 0.04 0.04 0.07 0.09 0.11
0.00 0.00 0.00 0.00 0.00 0.00 0.00 0.00 0.00 0.00 0.00 0.00 0.00 0.00 0.00 0.00 0.00 0.00 0.00 0.00 0.00 0.00 0.00 0.00 0.00 0.00 0.02 0.06 0.09 0.07 0.10 0.11 0.10 0.11 0.13 0.10 0.09 0.10 0.06 0.05 0.07 0.06 0.06 0.07
0.02 0.00 0.00 0.01 0.00 0.00 0.00 0.00 0.00 0.00 0.00 0.00 0.00 0.00 0.00 0.00 0.00 0.00 0.00 0.00 0.00 0.00 0.02 0.11 0.04 0.02 0.01 0.04 0.05 0.06 0.08 0.06 0.07 0.10 0.09 0.10 0.08 0.09 0.14 0.14 0.12 0.09 0.09 0.07
0.08 0.03 0.11 0.04 0.00 0.00 0.00 0.00 0.00 0.00 0.00 0.00 0.00 0.00 0.00 0.00 0.00 0.00 0.00 0.00 0.00 0.00 0.08 0.06 0.01 0.01 0.01 0.02 0.02 0.02 0.03 0.03 0.04 0.07 0.07 0.05 0.05 0.04 0.07 0.12 0.13 0.10 0.09 0.11
0.16 0.08 0.05 0.00 0.00 0.00 0.00 0.00 0.00 0.00 0.00 0.00 0.00 0.00 0.00 0.00 0.00 0.00 0.00 0.00 0.00 0.00 0.00 0.00 0.00 0.00 0.00 0.00 0.00 0.01 0.02 0.02 0.03 0.03 0.04 0.04 0.05 0.07 0.05 0.07 0.09 0.08 0.09 0.09
0.31 0.20 0.07 0.00 0.00 0.00 0.00 0.00 0.00 0.00 0.00 0.00 0.00 0.00 0.00 0.00 0.00 0.00 0.00 0.00 0.00 0.00 0.00 0.00 0.00 0.00 0.00 0.00 0.00 0.00 0.01 0.02 0.01 0.01 0.01 0.03 0.03 0.03 0.03 0.04 0.07 0.06 0.07 0.07
0.30 0.26 0.05 0.00 0.00 0.01 0.03 0.02 0.00 0.00 0.00 0.00 0.00 0.00 0.00 0.00 0.00 0.00 0.00 0.00 0.00 0.00 0.00 0.00 0.00 0.00 0.00 0.00 0.00 0.00 0.00 0.00 0.01 0.01 0.02 0.03 0.05 0.04 0.04 0.04 0.05 0.07 0.07 0.07
0.32 0.29 0.11 0.02 0.10 0.15 0.06 0.01 0.00 0.00 0.00 0.00 0.00 0.00 0.00 0.00 0.00 0.00 0.00 0.00 0.00 0.00 0.00 0.00 0.00 0.00 0.00 0.00 0.00 0.00 0.00 0.01 0.02 0.05 0.06 0.06 0.05 0.06 0.08 0.08 0.08 0.07 0.07 0.09
0.08 0.06 0.02 0.05 0.10 0.10 0.08 0.06 0.04 0.01 0.00 0.00 0.00 0.00 0.00 0.00 0.00 0.00 0.00 0.00 0.00 0.00 0.00 0.00 0.00 0.00 0.00 0.00 0.00 0.00 0.01 0.02 0.04 0.05 0.06 0.06 0.08 0.10 0.11 0.10 0.09 0.09 0.08 0.08
0.07 0.03 0.02 0.03 0.04 0.01 0.00 0.01 0.01 0.01 0.01 0.02 0.02 0.01 0.01 0.00 0.00 0.00 0.00 0.00 0.00 0.00 0.00 0.00 0.00 0.00 0.00 0.01 0.02 0.02 0.02 0.01 0.02 0.04 0.09 0.06 0.08 0.08 0.09 0.08 0.08 0.10 0.12 0.13
0.03 0.01 0.01 0.01 0.02 0.06 0.04 0.01 0.00 0.01 0.00 0.01 0.00 0.01 0.01 0.01 0.01 0.00 0.00 0.00 0.00 0.00 0.00 0.00 0.01 0.01 0.03 0.04 0.04 0.04 0.04 0.05 0.04 0.04 0.06 0.04 0.06 0.11 0.12 0.12 0.16 0.12 0.10 0.10
0.07 0.03 0.02 0.01 0.00 0.00 0.00 0.01 0.01 0.01 0.01 0.02 0.01 0.00 0.00 0.00 0.00 0.00 0.00 0.00 0.00 0.00 0.00 0.01 0.02 0.02 0.02 0.01 0.03 0.05 0.06 0.06 0.10 0.08 0.06 0.06 0.07 0.11 0.15 0.14 0.16 0.14 0.17 0.17
0.02 0.01 0.02 0.03 0.03 0.01 0.01 0.01 0.00 0.01 0.01 0.02 0.03 0.01 0.01 0.01 0.01 0.01 0.00 0.00 0.00 0.01 0.03 0.03 0.04 0.05 0.11 0.15 0.12 0.10 0.09 0.09 0.08 0.07 0.06 0.04 0.04 0.05 0.09 0.22 0.32 0.43 0.50 0.52
0.04 0.03 0.03 0.02 0.02 0.01 0.01 0.01 0.02 0.01 0.01 0.01 0.02 0.01 0.01 0.00 0.00 0.00 0.00 0.01 0.01 0.01 0.03 0.05 0.11 0.22 0.35 0.49 0.59 0.69 0.77 0.82 0.75 0.65 0.51 0.46 0.46 0.47 0.49 0.52 0.55 0.61 0.54 0.40
0.05 0.06 0.04 0.03 0.03 0.03 0.02 0.03 0.04 0.05 0.05 0.05 0.04 0.03 0.02 0.01 0.01 0.00 0.00 0.00 0.00 0.02 0.06 0.11 0.16 0.24 0.35 0.43 0.53 0.63 0.71 0.79 0.78 0.77 0.71 0.62 0.52 0.47 0.43 0.40 0.36 0.36 0.36 0.32
0.01 0.02 0.05 0.06 0.05 0.03 0.03 0.03 0.02 0.02 0.02 0.03 0.03 0.02 0.02 0.02 0.02 0.01 0.01 0.01 0.01 0.03 0.05 0.07 0.12 0.17 0.16 0.17 0.22 0.30 0.43 0.54 0.51 0.55 0.61 0.55 0.51 0.45 0.42 0.38 0.34 0.31 0.29 0.26
0.01 0.00 0.01 0.05 0.06 0.05 0.06 0.08 0.08 0.07 0.05 0.04 0.05 0.04 0.03 0.03 0.04 0.05 0.05 0.04 0.03 0.05 0.06 0.11 0.25 0.31 0.35 0.44 0.51 0.64 0.69 0.74 0.69 0.61 0.58 0.53 0.44 0.37 0.31 0.26 0.24 0.22 0.23 0.22
0.01 0.01 0.02 0.03 0.04 0.05 0.06 0.06 0.07 0.08 0.11 0.12 0.11 0.11 0.12 0.13 0.15 0.14 0.15 0.11 0.09 0.18 0.37 0.52 0.57 0.59 0.64 0.68 0.64 0.64 0.59 0.56 0.50 0.45 0.40 0.35 0.31 0.25 0.22 0.20 0.17 0.14 0.12 0.09
0.03 0.04 0.05 0.06 0.08 0.09 0.09 0.11 0.13 0.13 0.15 0.16 0.17 0.22 0.22 0.24 0.25 0.34 0.39 0.41 0.53 0.60 0.94 0.82 0.70 0.63 0.63 0.61 0.47 0.41 0.36 0.30 0.25 0.23 0.21 0.19 0.17 0.15 0.13 0.11 0.10 0.09 0.07 0.06
0.04 0.05 0.04 0.05 0.06 0.07 0.09 0.12 0.12 0.15 0.22 0.21 0.23 0.32 0.44 0.65 0.69 0.73 0.63 0.65 0.75 0.81 0.79 0.66 0.47 0.38 0.35 0.30 0.21 0.17 0.16 0.15 0.13 0.13 0.11 0.09 0.07 0.07 0.06 0.05 0.05 0.05 0.05 0.04
0.18 0.17 0.17 0.17 0.20 0.23 0.27 0.33 0.25 0.35 0.53 0.53 0.46 0.58 0.64 0.78 0.75 0.70 0.57 0.54 0.73 0.59 0.46 0.38 0.29 0.25 0.18 0.15 0.11 0.09 0.07 0.05 0.04 0.04 0.03 0.04 0.04 0.03 0.03 0.02 0.02 0.02 0.02 0.02
0.32 0.30 0.33 0.33 0.26 0.35 0.44 0.43 0.36 0.43 0.48 0.50 0.52 0.54 0.47 0.57 0.52 0.46 0.45 0.41 0.47 0.34 0.25 0.20 0.16 0.11 0.07 0.05 0.04 0.04 0.03 0.03 0.02 0.02 0.01 0.00 0.01 0.00 0.01 0.00 0.01 0.01 0.02 0.01
0.39 0.37 0.36 0.36 0.34 0.38 0.39 0.38 0.41 0.34 0.37 0.41 0.41 0.43 0.37 0.40 0.38 0.26 0.27 0.31 0.21 0.16 0.11 0.09 0.05 0.03 0.03 0.03 0.02 0.01 0.01 0.00 0.00 0.00 0.01 0.01 0.01 0.01 0.01 0.01 0.01 0.01 0.01 0.01
0.40 0.37 0.38 0.39 0.28 0.19 0.27 0.42 0.33 0.32 0.29 0.29 0.28 0.26 0.18 0.14 0.17 0.15 0.12 0.11 0.07 0.04 0.02 0.01 0.00 0.00 0.00 0.01 0.00 0.00 0.00 0.00 0.01 0.01 0.01 0.01 0.01 0.01 0.02 0.01 0.01 0.01 0.02 0.01
0.33 0.31 0.31 0.28 0.23 0.30 0.29 0.29 0.19 0.18 0.13 0.12 0.12 0.10 0.08 0.05 0.06 0.08 0.03 0.02 0.01 0.02 0.00 0.00 0.00 0.00 0.00 0.01 0.01 0.00 0.00 0.00 0.01 0.01 0.01 0.01 0.01 0.01 0.01 0.01 0.01 0.01 0.01 0.01
0.23 0.22 0.22 0.19 0.19 0.16 0.13 0.08 0.08 0.08 0.03 0.04 0.07 0.06 0.05 0.03 0.02 0.02 0.01 0.01 0.01 0.02 0.02 0.02 0.01 0.00 0.00 0.01 0.01 0.00 0.01 0.01 0.01 0.01 0.01 0.01 0.01 0.01 0.01 0.01 0.01 0.01 0.01 0.01
0.15 0.14 0.10 0.07 0.06 0.04 0.03 0.02 0.02 0.04 0.04 0.03 0.05 0.04 0.03 0.02 0.02 0.02 0.02 0.01 0.02 0.01 0.02 0.02 0.02 0.01 0.01 0.00 0.00 0.01 0.01 0.01 0.01 0.01 0.01 0.01 0.01 0.01 0.01 0.01 0.01 0.01 0.00 0.00

GFSNGP_prec_precacc24_084.txt.gz
Total_Precipitation_Accumulation
0.03 0.09 0.03 0.03 0.07 0.04 0.01 0.01 0.03 0.01 0.01 0.00 0.00 0.00 0.00 0.00 0.00 0.00 0.00 0.00 0.00 0.00 0.00 0.00 0.00 0.00 0.01 0.07 0.12 0.13 0.14 0.14 0.12 0.16 0.11 0.12 0.12 0.07 0.07 0.04 0.04 0.07 0.09 0.11
0.00 0.00 0.00 0.00 0.01 0.01 0.02 0.01 0.01 0.00 0.00 0.00 0.00 0.00 0.00 0.00 0.00 0.00 0.00 0.00 0.00 0.00 0.00 0.00 0.00 0.00 0.01 0.03 0.07 0.06 0.07 0.08 0.08 0.09 0.12 0.09 0.09 0.10 0.06 0.05 0.07 0.06 0.06 0.07
0.02 0.00 0.00 0.01 0.00 0.00 0.00 0.00 0.00 0.00 0.00 0.00 0.00 0.00 0.00 0.00 0.00 0.00 0.00 0.00 0.00 0.00 0.00 0.03 0.00 0.01 0.01 0.02 0.03 0.05 0.05 0.06 0.07 0.10 0.09 0.10 0.08 0.09 0.14 0.16 0.12 0.09 0.09 0.07
0.08 0.03 0.11 0.04 0.00 0.00 0.00 0.00 0.00 0.00 0.01 0.00 0.00 0.00 0.00 0.00 0.00 0.00 0.00 0.00 0.00 0.00 0.03 0.03 0.00 0.00 0.00 0.00 0.01 0.01 0.02 0.03 0.04 0.07 0.07 0.05 0.05 0.04 0.07 0.12 0.14 0.11 0.10 0.11
0.15 0.07 0.05 0.00 0.00 0.00 0.00 0.00 0.00 0.00 0.01 0.00 0.00 0.00 0.01 0.00 0.00 0.00 0.00 0.00 0.00 0.00 0.00 0.00 0.00 0.00 0.00 0.00 0.00 0.01 0.02 0.02 0.03 0.03 0.04 0.04 0.05 0.07 0.05 0.07 0.09 0.08 0.11 0.10
0.28 0.19 0.07 0.00 0.00 0.00 0.00 0.00 0.00 0.00 0.01 0.00 0.00 0.00 0.01 0.00 0.00 0.00 0.00 0.00 0.00 0.00 0.00 0.00 0.00 0.00 0.00 0.00 0.00 0.00 0.01 0.02 0.01 0.01 0.01 0.03 0.03 0.03 0.03 0.04 0.07 0.06 0.07 0.08
0.27 0.23 0.05 0.00 0.00 0.01 0.04 0.04 0.00 0.00 0.00 0.00 0.00 0.00 0.00 0.00 0.00 0.00 0.00 0.00 0.00 0.00 0.00 0.00 0.00 0.00 0.00 0.00 0.00 0.00 0.00 0.00 0.01 0.01 0.02 0.03 0.05 0.04 0.04 0.04 0.05 0.07 0.07 0.08
0.31 0.27 0.11 0.02 0.11 0.18 0.11 0.01 0.00 0.00 0.00 0.00 0.00 0.00 0.00 0.00 0.00 0.00 0.00 0.00 0.00 0.00 0.00 0.00 0.00 0.00 0.00 0.00 0.00 0.00 0.00 0.01 0.03 0.07 0.07 0.06 0.06 0.06 0.08 0.08 0.08 0.07 0.07 0.09
0.07 0.06 0.02 0.06 0.11 0.12 0.08 0.06 0.04 0.01 0.00 0.00 0.00 0.00 0.00 0.00 0.00 0.00 0.00 0.00 0.00 0.00 0.00 0.00 0.00 0.00 0.00 0.00 0.00 0.00 0.01 0.02 0.05 0.08 0.10 0.10 0.13 0.12 0.12 0.12 0.11 0.10 0.09 0.09
0.12 0.07 0.11 0.16 0.08 0.02 0.00 0.01 0.01 0.01 0.01 0.02 0.02 0.01 0.01 0.00 0.00 0.00 0.00 0.00 0.00 0.00 0.00 0.00 0.00 0.00 0.00 0.01 0.02 0.03 0.02 0.02 0.03 0.08 0.13 0.10 0.11 0.10 0.11 0.12 0.15 0.20 0.24 0.25
0.05 0.05 0.17 0.24 0.13 0.08 0.04 0.01 0.00 0.01 0.00 0.01 0.00 0.01 0.01 0.01 0.01 0.00 0.00 0.00 0.00 0.00 0.00 0.00 0.01 0.01 0.03 0.04 0.04 0.05 0.06 0.07 0.08 0.07 0.08 0.07 0.09 0.17 0.18 0.21 0.32 0.33 0.37 0.41
0.13 0.06 0.10 0.12 0.01 0.00 0.00 0.01 0.01 0.01 0.01 0.02 0.01 0.00 0.00 0.00 0.00 0.00 0.00 0.00 0.00 0.00 0.00 0.01 0.02 0.02 0.02 0.01 0.03 0.07 0.10 0.11 0.16 0.15 0.16 0.17 0.17 0.23 0.29 0.28 0.30 0.29 0.35 0.39
0.02 0.01 0.02 0.03 0.03 0.01 0.01 0.01 0.00 0.01 0.01 0.02 0.03 0.01 0.01 0.01 0.01 0.01 0.00 0.00 0.00 0.01 0.03 0.03 0.04 0.06 0.11 0.15 0.15 0.16 0.18 0.19 0.18 0.16 0.18 0.20 0.23 0.26 0.34 0.50 0.59 0.67 0.75 0.81
0.04 0.03 0.03 0.02 0.02 0.01 0.01 0.01 0.02 0.01 0.01 0.01 0.02 0.01 0.01 0.00 0.00 0.00 0.01 0.01 0.01 0.01 0.03 0.05 0.11 0.22 0.36 0.49 0.59 0.71 0.82 0.92 0.92 0.95 0.88 0.81 0.78 0.78 0.80 0.79 0.84 0.90 0.78 0.63
0.05 0.06 0.04 0.03 0.03 0.03 0.02 0.03 0.04 0.05 0.05 0.05 0.04 0.03 0.02 0.01 0.01 0.01 0.01 0.00 0.01 0.02 0.06 0.11 0.16 0.25 0.35 0.44 0.54 0.64 0.72 0.81 0.85 0.88 0.89 0.83 0.77 0.72 0.66 0.61 0.54 0.53 0.50 0.47
0.01 0.02 0.05 0.06 0.05 0.03 0.03 0.03 0.02 0.02 0.02 0.03 0.03 0.03 0.02 0.02 0.02 0.03 0.03 0.03 0.04 0.07 0.09 0.10 0.14 0.20 0.17 0.17 0.22 0.31 0.46 0.59 0.55 0.61 0.69 0.67 0.65 0.60 0.56 0.49 0.45 0.43 0.40 0.39
0.01 0.00 0.01 0.05 0.06 0.05 0.06 0.08 0.08 0.07 0.05 0.05 0.05 0.04 0.04 0.04 0.04 0.06 0.09 0.10 0.09 0.12 0.12 0.15 0.29 0.33 0.35 0.43 0.48 0.62 0.68 0.73 0.69 0.63 0.63 0.60 0.53 0.46 0.39 0.34 0.31 0.30 0.31 0.30
0.01 0.01 0.02 0.03 0.04 0.06 0.06 0.06 0.07 0.08 0.11 0.13 0.12 0.12 0.13 0.15 0.17 0.19 0.23 0.19 0.16 0.23 0.42 0.56 0.58 0.55 0.56 0.59 0.57 0.62 0.59 0.57 0.51 0.47 0.44 0.39 0.35 0.30 0.27 0.26 0.23 0.20 0.19 0.15
0.03 0.04 0.05 0.06 0.09 0.09 0.10 0.12 0.14 0.14 0.16 0.17 0.18 0.24 0.25 0.28 0.29 0.37 0.40 0.38 0.47 0.51 0.84 0.73 0.61 0.53 0.56 0.57 0.44 0.40 0.36 0.31 0.26 0.25 0.23 0.21 0.19 0.17 0.16 0.14 0.13 0.11 0.09 0.08
0.04 0.05 0.05 0.05 0.06 0.07 0.09 0.13 0.13 0.16 0.23 0.22 0.24 0.30 0.37 0.55 0.58 0.60 0.51 0.51 0.60 0.63 0.62 0.53 0.38 0.33 0.32 0.28 0.21 0.18 0.17 0.16 0.14 0.14 0.12 0.10 0.08 0.07 0.06 0.05 0.05 0.05 0.05 0.04
0.15 0.14 0.15 0.15 0.18 0.20 0.24 0.30 0.22 0.30 0.44 0.43 0.34 0.43 0.47 0.57 0.52 0.47 0.34 0.34 0.55 0.47 0.38 0.33 0.27 0.24 0.18 0.15 0.11 0.09 0.07 0.05 0.04 0.04 0.04 0.04 0.04 0.04 0.03 0.03 0.02 0.02 0.02 0.02
0.24 0.22 0.26 0.27 0.20 0.29 0.36 0.34 0.29 0.33 0.35 0.35 0.36 0.38 0.32 0.41 0.38 0.32 0.33 0.31 0.38 0.29 0.22 0.18 0.15 0.11 0.07 0.05 0.04 0.04 0.03 0.03 0.02 0.02 0.01 0.01 0.01 0.00 0.01 0.00 0.01 0.01 0.02 0.01
0.32 0.30 0.30 0.29 0.28 0.32 0.32 0.31 0.33 0.27 0.29 0.32 0.33 0.34 0.27 0.29 0.28 0.18 0.19 0.24 0.16 0.13 0.09 0.08 0.05 0.03 0.03 0.03 0.02 0.01 0.01 0.00 0.00 0.00 0.01 0.01 0.01 0.01 0.01 0.01 0.01 0.01 0.01 0.01
0.33 0.31 0.32 0.32 0.24 0.17 0.23 0.35 0.28 0.27 0.24 0.24 0.22 0.21 0.14 0.10 0.14 0.12 0.09 0.09 0.05 0.03 0.01 0.01 0.00 0.00 0.00 0.01 0.00 0.00 0.00 0.00 0.00 0.00 0.00 0.00 0.00 0.01 0.01 0.01 0.01 0.01 0.01 0.01
0.29 0.27 0.26 0.24 0.20 0.25 0.24 0.25 0.16 0.16 0.11 0.10 0.09 0.08 0.06 0.03 0.05 0.07 0.02 0.01 0.01 0.00 0.00 0.00 0.00 0.00 0.00 0.00 0.00 0.00 0.00 0.00 0.01 0.00 0.01 0.01 0.00 0.00 0.00 0.00 0.01 0.01 0.01 0.01
0.21 0.19 0.19 0.16 0.16 0.14 0.11 0.07 0.06 0.06 0.02 0.03 0.05 0.04 0.04 0.02 0.01 0.01 0.01 0.01 0.00 0.01 0.01 0.01 0.00 0.00 0.00 0.00 0.00 0.00 0.00 0.00 0.00 0.01 0.01 0.00 0.00 0.00 0.00 0.01 0.01 0.01 0.01 0.00
0.14 0.12 0.09 0.06 0.04 0.03 0.01 0.01 0.01 0.03 0.02 0.01 0.03 0.03 0.02 0.01 0.01 0.01 0.01 0.01 0.01 0.01 0.01 0.01 0.01 0.00 0.00 0.00 0.00 0.00 0.00 0.00 0.00 0.00 0.00 0.00 0.00 0.00 0.00 0.01 0.00 0.00 0.00 0.00

GFSNGP_prec_precacc24_090.txt.gz
Total_Precipitation_Accumulation
0.03 0.12 0.21 0.25 0.22 0.21 0.21 0.11 0.11 0.02 0.05 0.08 0.11 0.28 0.19 0.03 0.00 0.00 0.00 0.00 0.00 0.00 0.00 0.05 0.11 0.10 0.08 0.04 0.05 0.05 0.08 0.06 0.05 0.08 0.02 0.03 0.03 0.03 0.04 0.02 0.02 0.06 0.08 0.11
0.00 0.00 0.01 0.01 0.05 0.13 0.19 0.24 0.23 0.11 0.09 0.07 0.03 0.11 0.28 0.06 0.01 0.00 0.00 0.00 0.00 0.00 0.00 0.00 0.00 0.02 0.05 0.03 0.05 0.07 0.04 0.04 0.06 0.07 0.08 0.05 0.05 0.07 0.04 0.05 0.07 0.06 0.05 0.07
0.01 0.01 0.01 0.01 0.00 0.00 0.02 0.03 0.10 0.07 0.06 0.01 0.04 0.04 0.05 0.03 0.00 0.00 0.00 0.00 0.00 0.00 0.00 0.00 0.00 0.00 0.02 0.05 0.05 0.07 0.13 0.14 0.10 0.13 0.11 0.12 0.11 0.10 0.15 0.16 0.12 0.08 0.09 0.07
0.07 0.02 0.09 0.02 0.00 0.00 0.04 0.02 0.00 0.02 0.04 0.03 0.03 0.01 0.00 0.00 0.00 0.00 0.00 0.00 0.00 0.00 0.00 0.00 0.00 0.00 0.00 0.02 0.03 0.04 0.12 0.17 0.15 0.11 0.13 0.13 0.09 0.07 0.09 0.15 0.15 0.12 0.11 0.12
0.10 0.06 0.04 0.00 0.00 0.00 0.01 0.01 0.01 0.04 0.05 0.01 0.03 0.02 0.02 0.00 0.00 0.00 0.00 0.00 0.00 0.00 0.00 0.00 0.00 0.00 0.00 0.00 0.00 0.01 0.05 0.10 0.10 0.09 0.13 0.16 0.13 0.12 0.08 0.09 0.13 0.11 0.14 0.12
0.11 0.16 0.07 0.00 0.00 0.00 0.00 0.01 0.01 0.02 0.03 0.01 0.00 0.02 0.03 0.01 0.00 0.00 0.00 0.00 0.00 0.00 0.00 0.00 0.00 0.00 0.00 0.00 0.00 0.00 0.01 0.06 0.05 0.08 0.11 0.14 0.15 0.14 0.11 0.10 0.14 0.14 0.13 0.10
0.07 0.12 0.05 0.00 0.00 0.01 0.05 0.04 0.00 0.00 0.00 0.01 0.00 0.01 0.01 0.00 0.00 0.00 0.00 0.00 0.00 0.00 0.00 0.00 0.00 0.00 0.00 0.00 0.00 0.00 0.00 0.01 0.02 0.05 0.09 0.11 0.15 0.15 0.14 0.18 0.18 0.14 0.09 0.10
0.08 0.14 0.10 0.02 0.11 0.20 0.14 0.01 0.00 0.00 0.00 0.00 0.00 0.00 0.00 0.00 0.00 0.01 0.00 0.00 0.00 0.00 0.00 0.00 0.00 0.00 0.00 0.00 0.00 0.00 0.00 0.01 0.03 0.09 0.12 0.14 0.15 0.17 0.18 0.19 0.17 0.14 0.13 0.14
0.03 0.04 0.09 0.15 0.16 0.17 0.10 0.06 0.05 0.02 0.01 0.00 0.00 0.00 0.00 0.00 0.00 0.00 0.00 0.00 0.00 0.00 0.00 0.00 0.00 0.00 0.00 0.00 0.00 0.00 0.01 0.02 0.05 0.09 0.13 0.16 0.21 0.23 0.24 0.25 0.24 0.24 0.24 0.23
0.18 0.17 0.17 0.35 0.24 0.04 0.04 0.05 0.03 0.01 0.00 0.01 0.01 0.00 0.00 0.00 0.00 0.00 0.00 0.00 0.00 0.00 0.00 0.00 0.00 0.00 0.00 0.01 0.02 0.03 0.02 0.02 0.03 0.09 0.14 0.12 0.15 0.15 0.17 0.20 0.26 0.36 0.45 0.47
0.26 0.32 0.31 0.50 0.48 0.23 0.06 0.01 0.02 0.02 0.00 0.00 0.00 0.01 0.01 0.01 0.01 0.00 0.00 0.00 0.00 0.00 0.00 0.00 0.01 0.01 0.03 0.04 0.04 0.05 0.06 0.07 0.08 0.08 0.09 0.08 0.11 0.22 0.26 0.38 0.55 0.61 0.73 0.82
0.72 0.47 0.42 0.46 0.18 0.12 0.09 0.03 0.01 0.01 0.01 0.02 0.01 0.00 0.00 0.00 0.00 0.00 0.00 0.00 0.00 0.00 0.00 0.01 0.02 0.02 0.02 0.01 0.03 0.07 0.10 0.11 0.17 0.17 0.18 0.20 0.22 0.30 0.42 0.44 0.47 0.49 0.61 0.69
0.31 0.41 0.27 0.19 0.09 0.02 0.01 0.01 0.00 0.00 0.01 0.01 0.02 0.01 0.01 0.01 0.01 0.01 0.00 0.00 0.00 0.01 0.03 0.04 0.04 0.06 0.11 0.16 0.15 0.16 0.18 0.19 0.19 0.18 0.24 0.29 0.36 0.42 0.54 0.75 0.84 0.98 1.09 1.15
0.12 0.09 0.04 0.03 0.03 0.01 0.01 0.01 0.02 0.01 0.01 0.01 0.01 0.01 0.01 0.00 0.00 0.00 0.01 0.01 0.01 0.02 0.03 0.05 0.12 0.23 0.37 0.50 0.60 0.72 0.83 0.94 0.94 0.99 0.97 0.93 0.89 0.87 0.89 0.93 1.03 1.26 1.29 1.16
0.08 0.08 0.05 0.03 0.03 0.03 0.02 0.03 0.04 0.05 0.05 0.05 0.04 0.03 0.02 0.02 0.02 0.02 0.01 0.01 0.01 0.03 0.07 0.12 0.17 0.28 0.38 0.45 0.55 0.66 0.75 0.85 0.88 0.91 0.92 0.89 0.85 0.82 0.78 0.71 0.64 0.67 0.66 0.63
0.01 0.02 0.04 0.05 0.05 0.03 0.03 0.03 0.02 0.02 0.03 0.03 0.03 0.03 0.03 0.03 0.03 0.04 0.04 0.04 0.04 0.09 0.10 0.12 0.18 0.26 0.20 0.19 0.23 0.31 0.46 0.59 0.54 0.60 0.67 0.63 0.60 0.57 0.57 0.55 0.54 0.54 0.52 0.53
0.01 0.01 0.01 0.04 0.06 0.06 0.06 0.08 0.08 0.08 0.06 0.06 0.07 0.06 0.05 0.05 0.05 0.08 0.11 0.12 0.11 0.14 0.14 0.16 0.31 0.34 0.34 0.39 0.43 0.58 0.61 0.65 0.58 0.50 0.49 0.48 0.46 0.41 0.38 0.34 0.32 0.32 0.37 0.37
0.01 0.01 0.02 0.03 0.05 0.06 0.06 0.06 0.07 0.09 0.12 0.14 0.14 0.13 0.14 0.16 0.19 0.21 0.25 0.21 0.15 0.17 0.33 0.46 0.47 0.42 0.42 0.43 0.37 0.38 0.36 0.37 0.34 0.34 0.34 0.32 0.31 0.28 0.26 0.24 0.23 0.21 0.22 0.19
0.02 0.03 0.04 0.06 0.09 0.09 0.10 0.13 0.15 0.15 0.17 0.18 0.19 0.25 0.25 0.28 0.28 0.34 0.35 0.26 0.29 0.29 0.58 0.52 0.41 0.32 0.34 0.38 0.27 0.24 0.23 0.22 0.21 0.21 0.20 0.19 0.17 0.16 0.15 0.14 0.13 0.12 0.09 0.08
0.04 0.04 0.04 0.05 0.06 0.07 0.09 0.13 0.13 0.16 0.23 0.22 0.22 0.26 0.29 0.41 0.42 0.41 0.32 0.32 0.41 0.48 0.46 0.37 0.24 0.21 0.21 0.20 0.15 0.14 0.14 0.12 0.10 0.10 0.09 0.08 0.07 0.06 0.05 0.04 0.04 0.04 0.04 0.04
0.09 0.08 0.09 0.09 0.12 0.14 0.16 0.20 0.15 0.20 0.30 0.28 0.24 0.30 0.31 0.39 0.36 0.33 0.24 0.23 0.36 0.29 0.21 0.17 0.12 0.11 0.08 0.06 0.04 0.03 0.02 0.02 0.02 0.02 0.02 0.02 0.02 0.02 0.02 0.02 0.02 0.01 0.01 0.02
0.13 0.12 0.15 0.16 0.13 0.19 0.24 0.23 0.19 0.22 0.25 0.26 0.27 0.29 0.24 0.30 0.26 0.19 0.18 0.17 0.21 0.15 0.09 0.07 0.05 0.04 0.02 0.01 0.01 0.00 0.00 0.00 0.00 0.01 0.01 0.00 0.00 0.00 0.00 0.00 0.00 0.01 0.01 0.01
0.19 0.19 0.19 0.19 0.19 0.22 0.22 0.22 0.24 0.21 0.22 0.24 0.25 0.26 0.19 0.18 0.17 0.10 0.10 0.13 0.07 0.04 0.02 0.02 0.01 0.00 0.00 0.00 0.00 0.00 0.00 0.00 0.00 0.00 0.00 0.00 0.00 0.00 0.00 0.00 0.00 0.00 0.00 0.01
0.21 0.22 0.22 0.23 0.20 0.16 0.17 0.26 0.22 0.21 0.18 0.17 0.16 0.14 0.08 0.06 0.07 0.05 0.04 0.03 0.01 0.00 0.00 0.00 0.00 0.00 0.00 0.00 0.00 0.00 0.00 0.00 0.00 0.00 0.00 0.00 0.00 0.00 0.00 0.00 0.00 0.00 0.00 0.00
0.22 0.21 0.20 0.21 0.17 0.18 0.18 0.19 0.14 0.12 0.07 0.06 0.05 0.04 0.02 0.01 0.02 0.03 0.00 0.00 0.00 0.00 0.00 0.00 0.00 0.00 0.00 0.00 0.00 0.00 0.00 0.00 0.00 0.00 0.00 0.00 0.00 0.00 0.00 0.00 0.00 0.00 0.00 0.00
0.15 0.15 0.16 0.15 0.14 0.13 0.10 0.06 0.03 0.03 0.00 0.01 0.02 0.02 0.02 0.01 0.00 0.00 0.00 0.00 0.00 0.00 0.00 0.00 0.00 0.00 0.00 0.00 0.00 0.00 0.00 0.00 0.00 0.00 0.00 0.00 0.00 0.00 0.00 0.00 0.00 0.00 0.00 0.00
0.11 0.11 0.08 0.05 0.03 0.02 0.01 0.01 0.01 0.01 0.01 0.01 0.02 0.02 0.01 0.00 0.00 0.00 0.00 0.00 0.00 0.00 0.01 0.01 0.00 0.00 0.00 0.00 0.00 0.00 0.00 0.00 0.00 0.00 0.00 0.00 0.00 0.00 0.00 0.00 0.00 0.00 0.00 0.00

GFSNGP_prec_precacc24_093.txt.gz
Total_Precipitation_Accumulation
0.03 0.12 0.21 0.25 0.23 0.23 0.28 0.19 0.20 0.03 0.05 0.08 0.14 0.57 0.57 0.21 0.03 0.01 0.00 0.00 0.01 0.02 0.02 0.09 0.16 0.16 0.14 0.10 0.10 0.08 0.08 0.03 0.05 0.06 0.01 0.00 0.01 0.01 0.03 0.01 0.01 0.03 0.04 0.07
0.00 0.00 0.01 0.01 0.05 0.13 0.19 0.27 0.27 0.12 0.09 0.07 0.05 0.23 0.58 0.32 0.15 0.04 0.00 0.00 0.00 0.00 0.00 0.00 0.00 0.02 0.05 0.03 0.06 0.06 0.03 0.08 0.12 0.14 0.12 0.07 0.05 0.05 0.03 0.02 0.04 0.04 0.02 0.04
0.01 0.01 0.01 0.00 0.00 0.00 0.02 0.04 0.10 0.08 0.06 0.02 0.09 0.16 0.24 0.28 0.18 0.09 0.01 0.01 0.00 0.00 0.00 0.00 0.00 0.00 0.02 0.05 0.04 0.06 0.12 0.14 0.11 0.15 0.15 0.16 0.16 0.12 0.18 0.20 0.12 0.08 0.08 0.06
0.01 0.01 0.02 0.00 0.01 0.00 0.08 0.15 0.03 0.03 0.05 0.04 0.14 0.07 0.02 0.06 0.11 0.14 0.07 0.03 0.01 0.00 0.00 0.00 0.00 0.00 0.00 0.02 0.03 0.04 0.11 0.16 0.13 0.09 0.11 0.14 0.12 0.11 0.15 0.20 0.17 0.15 0.15 0.17
0.03 0.00 0.00 0.00 0.00 0.00 0.03 0.05 0.03 0.08 0.18 0.01 0.04 0.08 0.08 0.07 0.07 0.06 0.04 0.03 0.00 0.00 0.00 0.00 0.00 0.00 0.00 0.00 0.00 0.01 0.04 0.08 0.08 0.09 0.13 0.15 0.12 0.10 0.09 0.10 0.14 0.15 0.20 0.22
0.08 0.06 0.00 0.00 0.00 0.00 0.01 0.03 0.01 0.05 0.29 0.11 0.01 0.03 0.04 0.04 0.10 0.06 0.03 0.00 0.00 0.00 0.00 0.00 0.00 0.00 0.00 0.00 0.00 0.00 0.00 0.05 0.05 0.08 0.10 0.12 0.14 0.15 0.14 0.11 0.13 0.15 0.16 0.16
0.06 0.09 0.02 0.00 0.00 0.01 0.05 0.04 0.00 0.00 0.08 0.19 0.07 0.05 0.03 0.01 0.02 0.04 0.02 0.00 0.00 0.00 0.00 0.00 0.00 0.00 0.00 0.00 0.00 0.00 0.00 0.00 0.02 0.05 0.09 0.10 0.14 0.14 0.15 0.19 0.22 0.21 0.18 0.17
0.08 0.12 0.04 0.00 0.06 0.14 0.13 0.01 0.00 0.00 0.01 0.03 0.02 0.01 0.01 0.00 0.00 0.01 0.00 0.00 0.00 0.00 0.00 0.00 0.00 0.00 0.00 0.00 0.00 0.00 0.00 0.01 0.03 0.09 0.12 0.14 0.14 0.16 0.18 0.19 0.20 0.19 0.20 0.20
0.03 0.03 0.09 0.13 0.08 0.09 0.06 0.06 0.04 0.02 0.01 0.00 0.00 0.00 0.00 0.00 0.00 0.00 0.00 0.00 0.00 0.00 0.00 0.00 0.00 0.00 0.00 0.00 0.00 0.00 0.01 0.02 0.05 0.09 0.13 0.15 0.21 0.23 0.24 0.25 0.25 0.26 0.29 0.31
0.21 0.21 0.17 0.36 0.25 0.06 0.04 0.12 0.10 0.02 0.01 0.01 0.00 0.00 0.00 0.00 0.00 0.00 0.00 0.00 0.00 0.00 0.00 0.00 0.00 0.00 0.00 0.01 0.02 0.03 0.02 0.02 0.03 0.08 0.14 0.12 0.15 0.15 0.17 0.20 0.26 0.36 0.46 0.50
0.52 0.44 0.36 0.54 0.51 0.34 0.22 0.05 0.08 0.06 0.02 0.01 0.01 0.01 0.01 0.01 0.00 0.00 0.00 0.00 0.00 0.00 0.00 0.00 0.01 0.01 0.03 0.04 0.04 0.05 0.06 0.07 0.08 0.08 0.09 0.08 0.11 0.22 0.26 0.39 0.55 0.61 0.73 0.82
1.01 0.71 0.54 0.55 0.24 0.14 0.15 0.07 0.01 0.02 0.01 0.02 0.01 0.00 0.00 0.00 0.00 0.00 0.00 0.00 0.00 0.00 0.00 0.01 0.02 0.02 0.02 0.01 0.03 0.07 0.10 0.11 0.17 0.17 0.18 0.20 0.23 0.31 0.42 0.45 0.48 0.49 0.61 0.70
0.42 0.62 0.50 0.31 0.16 0.05 0.02 0.01 0.00 0.00 0.01 0.01 0.02 0.01 0.01 0.01 0.01 0.01 0.00 0.00 0.00 0.01 0.03 0.04 0.04 0.06 0.11 0.16 0.15 0.16 0.18 0.19 0.19 0.19 0.24 0.30 0.36 0.42 0.55 0.76 0.85 0.98 1.10 1.16
0.21 0.17 0.08 0.08 0.06 0.02 0.01 0.01 0.02 0.01 0.01 0.01 0.01 0.01 0.01 0.00 0.00 0.00 0.01 0.01 0.01 0.02 0.03 0.06 0.12 0.24 0.38 0.50 0.60 0.72 0.83 0.94 0.94 1.00 0.98 0.94 0.89 0.87 0.89 0.92 1.02 1.26 1.29 1.16
0.13 0.08 0.04 0.02 0.01 0.02 0.01 0.02 0.03 0.04 0.05 0.05 0.04 0.03 0.02 0.02 0.02 0.02 0.02 0.01 0.01 0.03 0.07 0.12 0.17 0.27 0.37 0.43 0.53 0.65 0.75 0.85 0.87 0.88 0.88 0.85 0.82 0.79 0.75 0.67 0.60 0.65 0.63 0.61
0.01 0.02 0.03 0.02 0.02 0.02 0.02 0.02 0.02 0.02 0.03 0.03 0.03 0.03 0.03 0.03 0.03 0.04 0.05 0.04 0.05 0.09 0.09 0.09 0.15 0.25 0.20 0.18 0.21 0.28 0.41 0.52 0.47 0.52 0.61 0.59 0.57 0.52 0.53 0.51 0.50 0.50 0.48 0.50
0.01 0.01 0.01 0.04 0.05 0.05 0.06 0.07 0.08 0.08 0.06 0.06 0.07 0.06 0.05 0.05 0.05 0.08 0.11 0.12 0.11 0.14 0.14 0.15 0.31 0.32 0.31 0.35 0.37 0.48 0.51 0.56 0.52 0.46 0.46 0.46 0.43 0.39 0.37 0.32 0.30 0.30 0.35 0.35
0.01 0.02 0.03 0.04 0.05 0.07 0.06 0.06 0.07 0.09 0.13 0.15 0.14 0.13 0.14 0.16 0.19 0.21 0.25 0.21 0.15 0.14 0.25 0.38 0.38 0.33 0.32 0.33 0.29 0.32 0.31 0.33 0.31 0.31 0.31 0.30 0.29 0.28 0.25 0.23 0.22 0.20 0.22 0.18
0.02 0.02 0.03 0.04 0.05 0.05 0.06 0.09 0.12 0.14 0.16 0.19 0.19 0.25 0.25 0.28 0.27 0.31 0.30 0.20 0.22 0.22 0.46 0.42 0.33 0.27 0.30 0.33 0.23 0.21 0.20 0.19 0.18 0.19 0.18 0.17 0.16 0.16 0.14 0.12 0.11 0.09 0.06 0.05
0.03 0.03 0.04 0.05 0.05 0.06 0.07 0.10 0.10 0.13 0.20 0.20 0.20 0.22 0.25 0.35 0.36 0.33 0.26 0.25 0.33 0.40 0.38 0.31 0.19 0.16 0.17 0.16 0.12 0.12 0.12 0.10 0.09 0.08 0.07 0.06 0.05 0.04 0.03 0.02 0.02 0.02 0.02 0.01
0.07 0.07 0.07 0.07 0.09 0.11 0.12 0.14 0.11 0.15 0.22 0.19 0.16 0.21 0.23 0.29 0.27 0.26 0.18 0.17 0.27 0.21 0.15 0.12 0.08 0.07 0.05 0.04 0.02 0.02 0.01 0.01 0.01 0.01 0.01 0.01 0.01 0.01 0.01 0.01 0.01 0.01 0.01 0.01
0.11 0.10 0.12 0.12 0.10 0.14 0.17 0.16 0.14 0.16 0.18 0.19 0.20 0.23 0.19 0.23 0.20 0.15 0.14 0.13 0.15 0.10 0.06 0.04 0.03 0.02 0.00 0.00 0.00 0.00 0.00 0.00 0.00 0.00 0.00 0.00 0.00 0.00 0.00 0.00 0.00 0.01 0.01 0.01
0.14 0.14 0.14 0.15 0.15 0.16 0.17 0.17 0.19 0.17 0.18 0.20 0.21 0.21 0.16 0.15 0.13 0.08 0.07 0.08 0.04 0.02 0.01 0.00 0.00 0.00 0.00 0.00 0.00 0.00 0.00 0.00 0.00 0.00 0.00 0.00 0.00 0.00 0.00 0.00 0.00 0.00 0.00 0.01
0.16 0.17 0.17 0.18 0.16 0.13 0.14 0.21 0.18 0.18 0.16 0.15 0.13 0.12 0.06 0.04 0.05 0.03 0.02 0.01 0.00 0.00 0.00 0.00 0.00 0.00 0.00 0.00 0.00 0.00 0.00 0.00 0.00 0.00 0.00 0.00 0.00 0.00 0.00 0.00 0.00 0.00 0.00 0.00
0.16 0.16 0.17 0.18 0.15 0.16 0.15 0.16 0.13 0.10 0.06 0.04 0.03 0.02 0.01 0.00 0.01 0.01 0.00 0.00 0.00 0.00 0.00 0.00 0.00 0.00 0.00 0.00 0.00 0.00 0.00 0.00 0.00 0.00 0.00 0.00 0.00 0.00 0.00 0.00 0.00 0.00 0.00 0.00
0.13 0.13 0.15 0.15 0.13 0.11 0.09 0.06 0.03 0.02 0.00 0.01 0.01 0.01 0.01 0.00 0.00 0.00 0.00 0.00 0.00 0.00 0.00 0.00 0.00 0.00 0.00 0.00 0.00 0.00 0.00 0.00 0.00 0.00 0.00 0.00 0.00 0.00 0.00 0.00 0.00 0.00 0.00 0.00
0.10 0.11 0.08 0.05 0.03 0.02 0.02 0.02 0.01 0.01 0.01 0.01 0.01 0.01 0.00 0.00 0.00 0.00 0.00 0.00 0.00 0.00 0.01 0.01 0.00 0.00 0.00 0.00 0.00 0.00 0.00 0.00 0.00 0.00 0.00 0.00 0.00 0.00 0.00 0.00 0.00 0.00 0.00 0.00

GFSNGP_prec_precacc24_099.txt.gz
Total_Precipitation_Accumulation
0.03 0.12 0.21 0.25 0.23 0.23 0.30 0.21 0.26 0.04 0.05 0.09 0.14 0.58 0.62 0.30 0.20 0.26 0.27 0.13 0.12 0.15 0.18 0.22 0.26 0.28 0.27 0.23 0.25 0.22 0.21 0.12 0.08 0.04 0.02 0.00 0.00 0.00 0.00 0.00 0.00 0.00 0.00 0.00
0.00 0.00 0.01 0.01 0.05 0.13 0.19 0.27 0.27 0.13 0.10 0.07 0.07 0.26 0.60 0.39 0.37 0.29 0.13 0.02 0.01 0.02 0.04 0.07 0.08 0.11 0.11 0.07 0.10 0.10 0.07 0.13 0.16 0.12 0.09 0.05 0.04 0.03 0.01 0.00 0.00 0.00 0.00 0.00
0.00 0.00 0.00 0.00 0.00 0.00 0.02 0.04 0.11 0.10 0.06 0.02 0.14 0.22 0.30 0.36 0.40 0.33 0.31 0.11 0.02 0.00 0.00 0.01 0.02 0.06 0.07 0.08 0.06 0.08 0.15 0.18 0.15 0.16 0.15 0.13 0.13 0.09 0.09 0.12 0.05 0.03 0.03 0.01
0.01 0.01 0.01 0.00 0.01 0.00 0.08 0.15 0.05 0.05 0.05 0.05 0.20 0.18 0.14 0.25 0.52 0.42 0.34 0.45 0.26 0.08 0.02 0.00 0.01 0.05 0.14 0.18 0.14 0.12 0.16 0.19 0.15 0.09 0.11 0.15 0.12 0.11 0.13 0.13 0.11 0.10 0.12 0.15
0.01 0.00 0.00 0.00 0.00 0.00 0.03 0.05 0.04 0.12 0.25 0.23 0.30 0.43 0.47 0.63 0.64 0.63 0.43 0.30 0.32 0.21 0.11 0.02 0.01 0.01 0.02 0.10 0.07 0.09 0.10 0.10 0.08 0.08 0.12 0.14 0.11 0.09 0.10 0.10 0.12 0.15 0.22 0.26
0.04 0.04 0.00 0.00 0.00 0.00 0.00 0.03 0.01 0.11 0.43 0.43 0.37 0.32 0.35 0.47 0.77 0.56 0.31 0.18 0.13 0.10 0.07 0.03 0.01 0.00 0.00 0.00 0.00 0.00 0.01 0.04 0.04 0.07 0.10 0.11 0.13 0.14 0.13 0.09 0.11 0.16 0.20 0.22
0.03 0.07 0.02 0.00 0.00 0.00 0.04 0.04 0.00 0.02 0.19 0.58 0.69 0.79 0.69 0.57 0.55 0.30 0.21 0.09 0.02 0.01 0.01 0.00 0.01 0.01 0.00 0.00 0.00 0.00 0.00 0.00 0.01 0.03 0.08 0.08 0.12 0.13 0.12 0.16 0.17 0.18 0.18 0.17
0.06 0.10 0.04 0.00 0.03 0.10 0.11 0.01 0.01 0.01 0.03 0.11 0.32 0.31 0.25 0.39 0.36 0.20 0.04 0.00 0.00 0.00 0.00 0.00 0.00 0.00 0.00 0.00 0.00 0.00 0.00 0.00 0.01 0.04 0.06 0.09 0.11 0.14 0.14 0.14 0.15 0.13 0.15 0.16
0.03 0.06 0.11 0.13 0.09 0.08 0.02 0.02 0.03 0.04 0.09 0.16 0.21 0.23 0.29 0.16 0.04 0.00 0.00 0.00 0.00 0.00 0.00 0.00 0.00 0.00 0.00 0.00 0.00 0.00 0.00 0.01 0.02 0.06 0.09 0.13 0.17 0.18 0.18 0.20 0.19 0.20 0.23 0.25
0.39 0.49 0.30 0.41 0.29 0.08 0.07 0.16 0.17 0.10 0.05 0.07 0.06 0.06 0.07 0.04 0.00 0.00 0.00 0.00 0.00 0.00 0.00 0.00 0.00 0.00 0.00 0.00 0.01 0.01 0.01 0.01 0.02 0.07 0.11 0.09 0.11 0.11 0.13 0.15 0.20 0.29 0.37 0.41
0.81 0.69 0.54 0.65 0.64 0.45 0.32 0.14 0.14 0.16 0.13 0.09 0.07 0.07 0.06 0.05 0.03 0.00 0.00 0.00 0.00 0.00 0.00 0.00 0.00 0.00 0.01 0.01 0.02 0.04 0.06 0.07 0.08 0.08 0.08 0.08 0.10 0.19 0.22 0.35 0.48 0.55 0.68 0.78
1.17 0.94 0.77 0.74 0.43 0.31 0.27 0.23 0.12 0.05 0.02 0.00 0.00 0.00 0.00 0.00 0.00 0.00 0.00 0.00 0.00 0.00 0.00 0.00 0.01 0.02 0.02 0.01 0.03 0.07 0.10 0.11 0.17 0.16 0.18 0.19 0.20 0.26 0.37 0.41 0.41 0.45 0.58 0.68
0.54 0.86 0.79 0.62 0.39 0.22 0.12 0.06 0.03 0.00 0.00 0.00 0.00 0.00 0.00 0.01 0.01 0.01 0.00 0.00 0.00 0.01 0.01 0.02 0.03 0.05 0.11 0.15 0.14 0.16 0.18 0.20 0.19 0.19 0.24 0.29 0.35 0.40 0.52 0.68 0.74 0.84 0.92 0.99
0.32 0.39 0.26 0.16 0.10 0.04 0.01 0.00 0.00 0.00 0.00 0.00 0.00 0.00 0.00 0.00 0.00 0.00 0.01 0.01 0.00 0.00 0.01 0.02 0.06 0.13 0.26 0.44 0.56 0.68 0.78 0.85 0.83 0.89 0.88 0.84 0.78 0.73 0.72 0.72 0.80 1.06 1.16 1.09
0.13 0.08 0.08 0.03 0.00 0.00 0.00 0.00 0.00 0.00 0.01 0.03 0.03 0.01 0.01 0.01 0.02 0.03 0.02 0.01 0.00 0.00 0.01 0.01 0.02 0.08 0.13 0.20 0.31 0.42 0.54 0.68 0.75 0.77 0.77 0.73 0.68 0.64 0.61 0.56 0.52 0.57 0.54 0.51
0.00 0.01 0.01 0.00 0.00 0.00 0.00 0.00 0.01 0.02 0.03 0.03 0.03 0.03 0.03 0.03 0.04 0.04 0.05 0.05 0.04 0.08 0.09 0.07 0.09 0.17 0.12 0.11 0.15 0.21 0.31 0.37 0.34 0.38 0.45 0.44 0.44 0.44 0.46 0.44 0.44 0.44 0.42 0.45
0.00 0.01 0.01 0.01 0.02 0.03 0.02 0.03 0.06 0.08 0.06 0.06 0.08 0.06 0.05 0.05 0.05 0.07 0.11 0.12 0.11 0.13 0.12 0.11 0.21 0.20 0.17 0.18 0.20 0.30 0.34 0.38 0.36 0.34 0.38 0.40 0.38 0.35 0.32 0.28 0.26 0.25 0.30 0.30
0.00 0.01 0.02 0.03 0.03 0.04 0.04 0.05 0.06 0.09 0.13 0.14 0.14 0.12 0.13 0.14 0.17 0.19 0.21 0.18 0.12 0.09 0.15 0.22 0.23 0.18 0.17 0.18 0.17 0.19 0.21 0.24 0.24 0.25 0.27 0.26 0.27 0.25 0.24 0.21 0.20 0.18 0.19 0.14
0.00 0.01 0.01 0.03 0.03 0.03 0.04 0.07 0.09 0.10 0.12 0.13 0.14 0.18 0.18 0.20 0.20 0.21 0.20 0.12 0.12 0.12 0.25 0.24 0.20 0.16 0.18 0.22 0.17 0.16 0.17 0.16 0.16 0.17 0.16 0.16 0.15 0.15 0.13 0.11 0.09 0.07 0.05 0.03
0.01 0.01 0.01 0.02 0.03 0.03 0.04 0.06 0.06 0.08 0.11 0.10 0.10 0.12 0.13 0.19 0.20 0.19 0.16 0.15 0.20 0.25 0.23 0.18 0.12 0.10 0.10 0.10 0.08 0.09 0.09 0.08 0.07 0.07 0.05 0.05 0.04 0.03 0.02 0.01 0.01 0.01 0.01 0.01
0.03 0.03 0.04 0.04 0.05 0.06 0.07 0.07 0.06 0.08 0.11 0.10 0.08 0.09 0.10 0.13 0.12 0.12 0.08 0.08 0.11 0.08 0.05 0.04 0.02 0.02 0.01 0.01 0.01 0.01 0.00 0.00 0.00 0.00 0.00 0.00 0.00 0.00 0.00 0.01 0.01 0.01 0.01 0.01
0.04 0.05 0.06 0.07 0.06 0.08 0.10 0.10 0.08 0.09 0.10 0.10 0.11 0.12 0.10 0.11 0.09 0.06 0.05 0.05 0.04 0.02 0.01 0.00 0.00 0.00 0.00 0.00 0.00 0.00 0.00 0.00 0.00 0.00 0.00 0.00 0.00 0.00 0.00 0.00 0.00 0.01 0.01 0.01
0.06 0.06 0.06 0.08 0.09 0.10 0.11 0.10 0.11 0.10 0.11 0.11 0.11 0.11 0.07 0.05 0.03 0.02 0.01 0.01 0.00 0.00 0.00 0.00 0.00 0.00 0.00 0.00 0.00 0.00 0.00 0.00 0.00 0.00 0.00 0.00 0.00 0.00 0.00 0.00 0.00 0.00 0.00 0.00
0.07 0.08 0.08 0.09 0.09 0.09 0.09 0.12 0.10 0.10 0.09 0.07 0.06 0.05 0.01 0.00 0.01 0.00 0.00 0.00 0.00 0.00 0.00 0.00 0.00 0.00 0.00 0.00 0.00 0.00 0.00 0.00 0.00 0.00 0.00 0.00 0.00 0.00 0.00 0.00 0.00 0.00 0.00 0.00
0.08 0.08 0.09 0.10 0.08 0.08 0.08 0.09 0.07 0.05 0.02 0.01 0.00 0.00 0.00 0.00 0.00 0.00 0.00 0.00 0.00 0.00 0.00 0.00 0.00 0.00 0.00 0.00 0.00 0.00 0.00 0.00 0.00 0.00 0.00 0.00 0.00 0.00 0.00 0.00 0.00 0.00 0.00 0.00
0.07 0.07 0.09 0.10 0.09 0.08 0.07 0.05 0.03 0.01 0.00 0.00 0.00 0.00 0.00 0.00 0.00 0.00 0.00 0.00 0.00 0.00 0.00 0.00 0.00 0.00 0.00 0.00 0.00 0.00 0.00 0.00 0.00 0.00 0.00 0.00 0.00 0.00 0.00 0.00 0.01 0.01 0.01 0.00
0.06 0.08 0.06 0.04 0.02 0.02 0.02 0.03 0.03 0.03 0.02 0.01 0.01 0.00 0.00 0.00 0.00 0.00 0.00 0.00 0.00 0.01 0.01 0.01 0.00 0.00 0.00 0.00 0.00 0.00 0.00 0.00 0.00 0.00 0.00 0.00 0.00 0.00 0.00 0.00 0.00 0.00 0.00 0.00